Crime / Courts

City of Aiken Outstanding Warrants

A warrant is merely an accusation of a criminal charge and all persons on this list are presumed innocent until proven guilty by a court of law. Misuse of warrant information may subject you to Civil or criminal liability. AN ARREST WITHOUT DISPOSITION IS NOT AN INDICATION OF GUILT

The accuracy of this information is not guaranteed and data is subject to change without notice.

This page shows persons with possibly active warrants held by the Aiken Department of Public Safety in Aiken, South Carolina.

If you know anyone who may be on the warrant list you are encouraged to contact Crimestoppers of the Midlands: (888) CRIME-SC (888-274-6372), submit a tip online at Crimestoppers TipSubmit or via SLED. Callers will remain anonymous and could receive a reward of between $50 and $1000. You should not attempt to physically apprehend any individual who may appear on this list. Warrants must be confirmed for validity by authorized law enforcement personnel and no action should be taken based solely on this website listing.

Warrant IssuedLast NameFirst NameMiddle NameDOBAgeEthnicitySexAddressCityStateViolationViolation DateWarrant Number
10/21/2021ChildersJeanaMaria03/24/199031WF1804 W St Joseph AvePensacolaFLDrugs / Poss. of narc. in Schedule I(b),10/20/20212021A0220102442
10/21/2021WoodsQuentinVershod01/15/199130BM45 Pine StAikenSCDrugs / Poss. of narc. in Schedule I(b),10/20/20212021A0220102446
10/21/2021WoodsQuentinVershod01/15/199130BM45 Pine StAikenSCTraffic / Habitual Traffic Offenders, DU10/20/20212021A0220102444
10/21/2021WoodsQuentinVershod01/15/199130BM45 Pine StAikenSCDrugs / Poss. of other controlled sub. i10/20/20212021A0220102445
10/21/2021RussellIsaiahSharif09/13/199427BM423 Ridge Ave.AikenSCWeapons / Unlawful carrying of pistol10/19/20212021A0220102450
10/21/2021MotonShamarOneal12/20/200020BM111 Wangontong RdWagenerSCDrugs / Poss. of narc. in Schedule I(b),10/20/20212021A0220102443
10/21/2021WoodsQuentinVershod01/15/199130BM45 Pine StAikenSCWeapons / Unlawful carrying of pistol10/20/20212021A0220102447
10/21/2021WoodsQuentinVershod01/15/199130BM45 Pine StAikenSCDrugs / Manuf., poss. of other sub. in S10/20/20212021A0220102448
10/20/2021MathisTroyLee10/24/197446BM640 Schroeder StreetAikenSCFail to Comply With Order of PSO07/03/20212021B0220100907
10/20/2021NorrisShawnaLynn10/20/198536WF1218 Two Notch Rd S EAikenSCSHOPLIFTING, VALUE $2,000 OR LESS10/20/20202021B0220100909
10/20/2021JonesAntonio09/16/198239BM46 E. 131st St.HalemNYWeapons / Unlawful carrying of pistol10/19/20212021A0220102438
10/20/2021SeeleyEricaNicole05/25/198635WF126 Hamelin RdAikenSCTRESPASSING/Entering premises after warn08/15/20212021B0220100906
10/20/2021MathisTroyLee10/24/197446BM640 Schroeder StreetAikenSCDisorderly / Public disorderly conduct07/03/20212021B0220100908
10/20/2021JonesAntonio09/16/198239BM46 E. 131st St.HarlemNYWeapons / Unlawful carrying of pistol10/19/20212021A0220102437
10/20/2021LeeShaunChristopher06/01/198338W3651 Azalea DrNorth CharlestonSCARSON/attempts to burn, willful and mali07/31/20212021A0220102440
10/19/2021FikesNathanielRyan10/11/199328WM410 Baker StreetGranitevilleSCSHOPLIFTING, VALUE $2,000 OR LESS08/04/20142014A0220100605
10/19/2021WellsJohnnyWesley09/09/197150WM1936 Whiskey Rd Rm 106AikenSCShoplifting / Shoplifting, value $2,00008/17/20212021B0220100904
10/19/2021GroggRobinAmanda05/08/198437WF54 Andover DrWarrenvilleSCASSAULT/Assault & Battery 3rd degree01/15/20212021B0220100903
10/19/2021KeyRonnieCalvin05/04/198437BM103 Zekia DrAIKENSCLARCENY/breaking into motor vehicle or t10/19/20212021A0220102433
10/19/2021ReddAustinKyle08/27/199130WM109 Smoke Ridge DriveNorth AugustaSCContempt/Contempt of Municipal Court - A08/11/20212021B0220100905
10/18/2021OddenEricDale09/09/197645WM2216 Morningside DriveMineral WellsTXShoplifting / Shoplifting, value $2,00010/17/20212021A0220102429
10/18/2021EasterlingNataliaShantell10/17/199427BF20 Lula LnJacksonSCBREACH/ Breach of trust with fraudulent01/27/20182021B0220100900
10/18/2021BlockerBrianOneil06/11/198536BM6029 Springside Lane Apt I-2AikenSCContempt/Contempt of Municipal Court - A09/01/20212021B0220100901
10/18/2021BunchMichaelW01/07/196952WM103 Jennings DrSummervilleSCDUS/DUS not suspended for DUI 3rd or sub06/23/20212021B0220100902
10/17/2021RussellEricJermaine04/23/199031BM3301 Trotter Run CtAikenSCTraffic / Habitual Traffic Offenders, DU10/16/20212021A0220102422
10/16/2021DraytonCarlosAntonio10/25/198040BM1341 Weeks RoadWillistonSCWEAPONS/POINTING OR PRESENTING A FIREARM10/15/20212021A0220102417
10/16/2021MossBrandiElizabeth08/12/198338WF731 Augusta RdAikenSCDRUGS/PWID METHAMPHETAMINES10/16/20212021A0220102419
10/16/2021DraytonCarlosAntonio10/25/198040BM1341 Weeks RoadWillistonSCAssault / Assault & Battery of a High &10/15/20212021A0220102415
10/16/2021DraytonCarlosAntonio10/25/198040BM1341 Weeks RoadWillistonSCWeapons / Unlawful carrying of pistol10/15/20212021A0220102416
10/16/2021MossBrandiElizabeth08/12/198338WF731 Augusta RdAikenSCDrugs / Possession of Cocaine, 1st offen10/16/20212021A0220102421
10/14/2021StewartJohnCullen07/05/198437WM320 Cactus RdGilbertSCFORGERY < $10,00010/13/20212021A0220102414
10/14/2021WilliamsBobbyJames03/13/196457BM373 Pine StWarrenvilleSCDUS 1st /Driving under suspension, lice12/27/20202021B0220100899
10/13/2021BowensThomas08/17/196358BM1740 Lundee DrAikenSCREPORT/FILING FALSE POLICE REPORT-FELONY10/08/20212021A0220102413
10/13/2021FulghumDonnaSmith10/30/196060WF305 Jon RdWarrenvilleSCContempt/Contempt of Municipal Court - U08/24/20212021B0220100898
10/12/2021JonesKentarioNil'zarkonqaius09/21/200120BM205 Limerick DrAikenSCMalicious Injury to animals, personal pr10/08/20212021A0220102405
10/07/2021CroftFrankBernard12/10/196852BM1501 Redd St. NwAikenSCBreach / Breach of trust with fraudulent09/13/20212021A0220102398
10/07/2021DavisQuriShla10/14/199229BF910 Monterey DrAikenSCDRUGS/Simple Possession Marijuana 28g1st05/01/20212021B0220100896
10/06/2021LovettRonaldAntonio05/11/198734BM31 Carriee LnNorth AugustaSCContempt/Contempt of Municipal Court - A03/08/20162021B0220100895
10/05/2021NelsonRobertLavette12/12/198238BM2411 Lumpkin RdAugustaGAMalicious Injury to animals, personal pr10/04/20212021A0220102395
10/05/2021JoseyAndrewLee10/26/198931WM2075 Williston RdAikenSCContempt/Contempt of Municipal Court - D09/12/20212021B0220100894
10/04/2021YoungRussellAdam04/01/198833WM3514 Seneca AvenueAikenSCContempt/Contempt of Municipal Court - T07/02/20212021B0220100892
10/04/2021JohnsonTyquanDavon01/24/200219BM10 Willis Hill RoadAikenSCWeapons / Poss. weapon during violent cr10/04/20212021A0220102392
10/04/2021JohnsonTyquanDavon01/24/200219BM10 Willis Hill RoadAikenSCPointing and Presenting a Pistol10/04/20212021A0220102393
10/04/2021JohnsonTyquanDavon01/24/200219BM10 Willis Hill RoadAikenSCROBBERY/ WHILE ARMED W/DEADLY WEAPO10/04/20212021A0220102391
10/04/2021TylerJamelRasheen12/25/199228BM255 Columbia AveAikenSCContempt/Contempt of Municipal Court - F08/30/20212021B0220100891
10/03/2021TrullChristopherLee07/03/197447WM162 Bristol DrGranitevilleSCDomestic / Domestic Violence, 2nd degree10/03/20212021A0220102390
10/01/2021SatterwhiteReneHarris12/26/197446BF168 Casalina DriveNorth AugustaSCChecks / Fraudulent check, or stop payme09/20/20212021A0220102383
09/30/2021KelleyDarrellEugene10/07/197645BM303 Ida LnColumbiaSCTELEPHONE/Unlawful Communication09/29/20212021A0220102361
09/30/2021KelleyDarrellEugene10/07/197645BM303 Ida LnColumbiaSCBurglary / Burglary (After June 20, 198509/29/20212021A0220102364
09/30/2021KelleyDarrellEugene10/07/197645BM303 Ida LnColumbiaSCDomestic / Domestic Violence, 1st degree09/29/20212021A0220102365
09/29/2021CheathamDorothyMichelle06/25/197546BF605 Morton Avenue NeAikenSCTRESPASSING/Entering premises after warn05/31/20212021B0220100887
09/29/2021NisbettPatrickJ11/12/197248BM555 Iris LaneAikenSCDUS / Driving under suspension, license04/19/20212021B0220100885
09/29/2021BeasleyRanishaDana07/29/199031BF3010 Mississippi AveAikenSCUnlawful Conduct Toward a Child06/13/20212021A0220102353
09/29/2021WilliamsJamieDavin Ryshawn07/09/199031BM177 L&L LaneAikenSCUnlawful Conduct Toward a Child07/24/20212021A0220102359
09/29/2021RainesEricLee10/26/197644WM406 Iroquois StAikenSCShoplifting / Shoplifting, value $2,00007/03/20212021B0220100886
09/29/2021CheathamDorothyMichelle06/25/197546BF605 Morton Avenue NeAikenSCDRUGS/Simple Possession Marijuana 28g1st05/31/20212021B0220100888
09/28/2021CapelloAndrewMichael10/25/199921WM689 Crestlyn DrNorth AugustaSCDRUGS/Simple Possession Marijuana 28g1st05/29/20212021B0220100884
09/28/2021BrittonDonaldPaul01/22/197249WM151 BRITTON RDWINDSORSCShoplifting / Shoplifting, value $2,00008/14/20212021B0220100883
09/24/2021AdamsMichaelKenneth02/08/199229WM616 Mount Pleasant RdMonettaSCDisorderly / Public disorderly conduct08/18/20212021B0220100882
09/22/2021StacyJarodDaniel11/25/199624WM1800 Long Creek Drive Apt 4nColumbiaSCContempt/Contempt of Municipal Court- Fa06/26/20212021B0220100877
09/22/2021MillinerClifton10/17/195764BM246 Augusta RoadWarrenvilleSCDisorderly / Public disorderly conduct07/05/20212021B0220100878
09/22/2021ParksChristopherLamont05/08/197447BM1496 Edgefield HwyAikenSCDUS / Driving under suspension, license07/18/20212021B0220100880
09/22/2021StacyJarodDaniel11/25/199624WM1800 Long Creek Drive Apt 4nColumbiaSCContempt/Contempt of Municipal Court - D06/26/20212021B0220100876
09/22/2021MillinerClifton10/17/195764BM246 Augusta RoadWarrenvilleSCTRESPASSING/Entering premises after warn07/05/20212021B0220100879
09/22/2021MimsIsrael01/06/198734B3442 Jonathan CircleAugustaGADomestic / Domestic Violence, 2nd degree09/22/20212021A0220102323
09/20/2021Just JrCharlesM03/11/197249WM2620 Columbia Hwy Lot 18AikenSCTraffic / Uninsured motor vehicle fee vi02/26/20212021B0220100871
09/20/2021BlockerBrianOneil06/11/198536BM6029 Springside Lane Apt I-2AikenSCContempt/Contempt of Municipal Court - A09/01/20212021B0220100875
09/20/2021Just JrCharlesM03/11/197249WM2620 Columbia Hwy Lot 18AikenSCDUS / Driving under suspension, license02/26/20212021B0220100872
09/20/2021ColemanChantrell10/20/199724BF3202 Westmont DRAikenSCDRUGS/Simple Possession Marijuana 28g1st06/15/20212021B0220100873
09/19/2021BattleJeffery07/17/197051BM226 Jehossee Dr SeAikenSCDomestic / Domestic Violence, 3rd degre09/19/20212021A0220102314
09/15/2021GarvinShilek12/01/198832BM212 Fairdale StAllendaleSCReport / Giving false information to law01/24/20212021B0220100866
09/15/2021MurrayAshleyLynn01/19/198536WF220 Date Palm CirAikenSCAnimals / Ill treatment of animals in ge09/02/20212021A0220102296
09/15/2021CheathamSirgeoAntwone05/04/198239BM34 Hillsboro DrAikenSCDrugs / Poss. of 28g (1 oz) or less of m05/14/20212021B0220100867
09/15/2021CheathamSirgeoAntwone05/04/198239BM34 Hillsboro DrAikenSCDUS 1st /Driving under suspension, lice10/05/20192021B0220100869
09/15/2021CrowsonKristenFale01/16/198041WF885 Main St. SNew EllentonSCShoplifting / Value $2000 or less (Enhan09/01/20212021A0220102295
09/15/2021CheathamSirgeoAntwone05/04/198239BM34 Hillsboro DrAikenSCDUS 1st /Driving under suspension, lice05/14/20212021B0220100868
09/13/2021RouseRodney06/24/196853BM1131 Chatfield StAikenSCContempt/Contempt of Municipal Court - D08/08/20212021B0220100864
09/13/2021RouseRodney06/24/196853BM1131 Chatfield StAikenSCDisorderly / Public disorderly conduct08/08/20212021B0220100865
09/10/2021DevoeRaheemLaquan06/24/199031BM444 Old Barnwell RdAllendaleSCTraffic / Hit and run, att. vehicle, dut08/18/20212021A0220102280
09/10/2021JordanGlennAllen12/18/196456BM5087 Trotter CtJacksonSCASSAULT/Assault & Battery 3rd degree09/07/20212021A0220102282
09/10/2021MurrayNicholasScott05/13/198041WM220 Date Palm CircleAikenSCAnimals / Ill treatment of animals in ge09/10/20212021A0220102283
09/10/2021DevoeRaheemLaquan06/24/199031BM444 Old Barnwell RdAllendaleSCDUS 1st /Driving under suspension, lice08/18/20212021A0220102281
09/09/2021MajorXavierSavon08/14/199724BM175 Anderson Pond RoadAikenSCTrespassing / Entering premises after wa04/13/20212021B0220100861
09/07/2021MurrayAndrewMillard03/28/196259WM502 Casey LaneAikenSCSHOPLIFTING, VALUE $2,000 OR LESS02/06/20212021B0220100859
09/07/2021Goodwin JrJohnC02/18/195962BM1403 Pineland StVanceSCTraffic / Driving without a license - 1s03/28/20212021B0220100856
09/07/2021BrooksSectriaTaniqua10/18/199526BF113 Tri C DrAikenSCASSAULT/Assault & Battery 3rd degree09/07/20212021A0220102276
09/07/2021MartinTalmageQuashawn Raheem07/29/199229BM4526 Rodney DriveColumbiaSCDRUGS/Simple Possession Marijuana 28g1st07/01/20212021B0220100854
09/07/2021BoylenJosephAndrew06/05/198536WM592 John Scott RdAikenSCShoplifting / Shoplifting, value $2,00005/30/20212021B0220100855
09/04/2021HayDeishaJasmine10/16/199229BF473 Rushton Rd.AikenSCASSAULT/Assault & Battery 3rd degree09/04/20212021A0220102271
09/02/2021GallowayHarveyAlan05/16/196655WM5082 Silverleaf WayAikenSCDUS / Driving under suspension, license04/18/20212021B0220100850
09/02/2021GallowayHarveyAlan05/16/196655WM5082 Silverleaf WayAikenSCTraffic / Uninsured motor vehicle fee vi04/18/20212021B0220100849
09/01/2021ScottDeshawn11/06/197347BM513 Saluda St N EAikenSCLarceny / Petit or Simple Larceny - $2,003/04/20212021B0220100848
08/30/2021ReesMichaelJohn11/19/196456WM114 Valley DrAIKENSCSHOPLIFTING, VALUE $2,000 OR LESS03/01/20212021B0220100847
08/27/2021FuewellTobyTerrell04/19/200120BM974 Old Jordan RdAikenSCPossession of a handgun by person convic07/07/20212021A0220102244
08/27/2021FuewellTobyTerrell04/19/200120BM974 Old Jordan RdAikenSCManslaughter / Involuntary Manslaughter07/07/20212021A0220102243
08/26/2021ValentineJeromeMontreal09/18/198338BM1130 Cooks Bridge RoadAikenSCContempt/Contempt of Municipal Court - D04/13/20212021B0220100843
08/26/2021JohnsonJimmie02/19/195368BM1665 Aldrich Street N EAikenSCTRESPASSING/Entering premises after warn01/07/20212021B0220100839
08/26/2021JohnsonJimmie02/19/195368BM1665 Aldrich Street N EAikenSCDisorderly/Public disorderly conduct01/07/20212021B0220100840
08/25/2021Peeples IIAngus01/21/198041BM61 Turning Leaf CirBarnwellSCALCOHOL/transport alcohol in motor vehic01/21/20212021B0220100836
08/25/2021Peeples IIAngus01/21/198041BM61 Turning Leaf CirBarnwellSCDRUGS/Simple Possession Marijuana 28g1st01/21/20212021B0220100837
08/17/2021RayAndrewCraig05/09/198833WM442 Old Salem RdBarnwellSCDUS 1st /Driving under suspension, lice05/07/20212021B0220100824
08/16/2021BushRondriekiesPhilip03/21/198932BM602 Sumter StAikenSCWeapons / Possession of Firearm or Ammun08/16/20212021A0220102215
08/16/2021BushRondriekiesPhilip03/21/198932BM602 Sumter StAikenSCPOSSESSION OF MARIJUANA, 2ND OFFENSE08/16/20212021A0220102213
08/16/2021BushRondriekiesPhilip03/21/198932BM602 Sumter StAikenSCWeapons / Possession of Firearm or Ammun08/16/20212021A0220102214
08/15/2021FulmerJonasM11/30/198436WM2911 Columbia Hwy NAikenSCLarceny / Grand Larceny, value $10,000 o08/15/20212021A0220102202
08/12/2021PinkardJoshuaLandon08/13/198239WM127 Hillsborough LnAikenSCDUS / Driving under suspension, license11/21/20202021B0220100817
08/12/2021OglesbyEdwardSebastian08/23/196259BM8097 Justee LnTrentonSCFail to Transfer /Use of license plate o06/03/20212021B0220100822
08/12/2021PinkardJoshuaLandon08/13/198239WM127 Hillsborough LnAikenSCOperating Uninsured MV08/16/20172021B0220100819
08/12/2021PinkardJoshuaLandon08/13/198239WM127 Hillsborough LnAikenSCDUS 1st /Driving under suspension, lice08/16/20172021B0220100818
08/12/2021GoldmanJessicaDee04/30/198239WF104 Michale CourtAikenSCSHOPLIFTING, VALUE $2,000 OR LESS11/17/20192021B0220100820
08/11/2021WestVictorAntonio01/16/199328BM512 Kershaw St N EAikenSCTraffic / Operating motor vehicle withou07/24/20212021B0220100816
08/11/2021JonesPerry04/26/197150HMSalvation ArmyAikenSCDUS/ Driving under suspension, license s05/01/20212021B0220100815
08/10/2021BoatrightAnthonyWayne06/06/197348WM27 Vass StAikenSCFORGERY < $10,00008/05/20212021A0220102183
08/08/2021LeeAnthonyMontrel10/15/198734BM222 Barnwell Ave NeAikenSCDomestic / Domestic Violence, 2nd degree08/07/20212021A0220102175
08/08/2021LeeAnthonyMontrel10/15/198734BM222 Barnwell Ave NeAikenSCMalicious Injury to animals, personal pr08/07/20212021A0220102177
08/08/2021LeeAnthonyMontrel10/15/198734BM222 Barnwell Ave NeAikenSCKidnapping08/07/20212021A0220102176
08/04/2021HuttoTammieSue12/14/197743WF2577 Whiskey Rd Room 212AikenSCContempt/Contempt of Municipal Court SPO06/05/20212021B0220100811
08/04/2021CurryAntonio11/03/198238BM736 Vicent Ave NeAikenSCTraffic/Leaving the Scene of accident in04/25/20212021B0220100810
08/04/2021De Los SantosSelenaMarie07/28/200318WF160 Dasher CirAikenSCBREACH/ Breach of trust with fraudulent08/03/20212021A0220102170
08/04/2021ComptonBrandi10/18/197348WM426 Mabus RdBatesburgSCBreach / Breach of trust with fraudulent07/23/20212021A0220102171
08/03/2021DooleyJasmineLeigh01/30/200318WF3206 Yemassee Ave.AikenSCBREACH/ Breach of trust with fraudulent08/03/20212021A0220102169
08/02/2021WilliamsJamieDavin Ryshawn07/09/199031BM177 L&L LaneAikenSCProviding False Info to PSO CITY ORDINAN10/31/20202021B0220100808
07/31/2021WilliamsonMeganElizabeth01/13/200021WF107 Simonds StWarrenvilleSCShoplifting / Shoplifting, value $2,00007/19/20212021A0220102163
07/23/2021WoodsonShawnDarnell04/05/198338BM514 N Crain Hwy Ste KGlen BurnieMDASSAULT/Assault & Battery 3rd degree07/22/20212021A0220102136
07/22/2021JohnsonAlexciaKeyanna08/20/199922BF3033 Old Powderhouse RoadAikenSCMalicious Injury to animals, personal pr07/09/20212021A0220102133
07/21/2021MettlenSarahLouise09/29/196160WF119 The Bunkers Dr SwAikenSCTRESPASSING/Entering premises after warn07/20/20212021A0220102128
07/21/2021ShawSummer08/06/198734WF2004 Canada DrAugustaGABreach / Breach of trust with fraudulent07/20/20212021A0220102129
07/20/2021GriffinHoraceJerome10/18/196457BM683 Lakeview RdNorth AugustaSCDUS / Driving under suspension, license04/01/20212021B0220100788
07/18/2021MillhouseBenjaminAlexander11/15/200218BM1112 Lockhart RdBatesburgSCLarceny / Petit or Simple Larceny - $2,007/16/20212021A0220102115
07/18/2021JanesChelseaNichole01/08/199229BF1325 Two Notch RdAikenSCVehicle / Use of vehicle without permiss07/17/20212021A0220102121
07/15/2021JamesStephanieMcKinney01/09/198239BF134 Chalet North CtNorth AugustaSCSHOPLIFTING, VALUE $2,000 OR LESS09/27/20202021B0220100784
07/14/2021StoneMichaelPatrick07/04/198140WM255 Wire RdAIKENSCDUS / Driving under suspension, license05/05/20212021B0220100783
07/14/2021HicksRaymondJermaine11/10/198040BM307 W Pine Grove AveNorth AugustaSCDUS 1st /Driving under suspension, lice03/22/20212021B0220100778
07/12/2021ByersRamseyNicole04/23/200219WF302 Holsenback StGranitevilleSCLarceny / Petit or Simple Larceny - $2,007/03/20212021A0220102080
07/11/2021AtkersonJoeyDevon07/05/198635BM726 Two Notch Road Lot 6LexingtonSCFail to Comply With Order of PSO07/11/20212021A0220102077
07/11/2021AtkersonJoeyDevon07/05/198635BM726 Two Notch Road Lot 6LexingtonSCDUS / Driving under suspension, license07/11/20212021A0220102076
07/10/2021LynnKaciMarie01/02/199625WFTraffic / Striking fixtures on or adjace07/10/20212021A0220102075
07/09/2021BlackAlanNathaniel01/20/199229BM1119 Hahn Avenue NeAikenSCFAILURE TO STOP FOR BLUE LIGHT/SIREN, NO07/08/20212021A0220102065
07/08/2021LeeAnthonyMontrel10/15/198734BM222 Barnwell Ave NeAikenSCLarceny / Petit or Simple Larceny - $2,007/08/20212021A0220102064
07/07/2021PorchChadAndrew05/14/198635WM32 Timberland LaneTrentonSCDomestic / Domestic Violence, 2nd degree07/07/20212021A0220102061
07/07/2021BruecksDaphneJ12/05/197743WF813 Good SpringsAikenSCTraffic / Uninsured motor vehicle fee vi02/27/20212021B0220100776
07/03/2021WilsonKennethLee02/28/197744WM309 Rushton RdAikenSCTELEPHONE/Unlawful Communication after 707/02/20212021A0220102049
07/02/2021JamesHadasahKeturah06/05/199130BF166 Kirkwood DrAikenSCObtain signature or prop. under false pr10/15/20202021A0220102046
07/01/2021RocheKevin06/01/198041WM4871 Banks Mill RdAikenSCVehicle / Use of vehicle without permiss06/25/20212021A0220102044
06/29/2021BeloteCalebEathan Don08/04/198041WM572 Railgate LoopLugoffSCContempt of Municipal Court DOC05/13/20212021B0220100765
06/29/2021FleglerShalondaLavita02/03/199328BF9102 Barnwell AveAikenSCDUS / Driving under suspension, license01/14/20212021B0220100764
06/29/2021DixonTonyGlover10/20/199031BM19 Converse DrAikenSCContempt of Municipal Court- Shoplifting02/04/20212021B0220100766
06/28/2021GreenRebekahLynne02/23/199328WF670 Sunnyfield DrWillistonSCContempt of Municipal Court Shoplifting06/05/20212021B0220100763
06/28/2021RocheKevin06/01/198041WM4871 Banks Mill RdAikenSCTELEPHONE/Unlawful Communication after 706/27/20212021A0220102022
06/28/2021BrownDarnellLeon08/09/198041BM2344 Cottage AveNewberrySCShoplifting / Shoplifting, value $2,00006/28/20212021A0220102021
06/23/2021WilliamsClarenceRodriquez04/21/197843BM72 Hall St.WillistonSCDomestic / Domestic Violence, 3rd degree06/22/20212021A0220101998
06/23/2021RoseCrystalAnn02/22/198239WF614 Rolling Hills Ct.TrentonSCFINANCIAL TRANSACTION CARD THEFT02/23/20202021A0220101999
06/23/2021RoseCrystalAnn02/22/198239WF614 Rolling Hills Ct.TrentonSCFINANCIAL TRANSACTION CARD FRAUD<$500 in02/23/20202021A0220102000
06/23/2021BushDominiqueSherard11/05/199228BM8 Willis Hill RoadAikenSCFORGERY < $10,00005/20/20202021A0220102001
06/23/2021RobertsTimothyBobby-Joe03/27/198140BM1328 Weeks RdWillistonSCContempt of Municipal Court Unlawful Com03/12/20212021B0220100760
06/17/2021CheathamTheresaLarquita01/14/198932BF310 Main Dr.AikenSCSHOPLIFTING, VALUE $2,000 OR LESS01/28/20212021B0220100752
06/17/2021JoynerTimothyLamont06/11/196853BM1123 Abbott RdColumbiaSCContempt of Municipal Court - Shopliftin05/11/20212021B0220100751
06/16/2021JoynerTimothyLamont06/11/196853BM1123 Abbott RdColumbiaSCContempt of Municipal Court Fail to Comp05/11/20212021B0220100746
06/16/2021HartleyNakingeShadrea06/14/199328BF965 Alfred StAikenSCTraffic / Uninsured motor vehicle fee vi11/29/20202021B0220100743
06/16/2021JoynerTimothyLamont06/11/196853BM1123 Abbott RdColumbiaSCContempt of Municipal Court Shoplifting05/11/20212021B0220100745
06/16/2021HartleyNakingeShadrea06/14/199328BF965 Alfred StAikenSCDUS / Driving under suspension, license11/29/20202021B0220100742
06/16/2021MathisKelvinLeonardo12/01/197050BM1544 Hamilton Dr #101AikenSCContempt of Municipal Court - DV 3rd Com07/20/20172021B0220100744
06/11/2021GramblinSkylareTynice09/25/199031BF174 John Scott RdAikenSCBreach / Breach of trust with fraudulent06/09/20212021A0220101957
06/09/2021PadgettLesterJackson11/05/195763WM324 Newberry StnwAikenSCContempt of Municipal Court DOC Communit09/23/20202021B0220100740
06/08/2021WattKristinPatricia09/05/199130WF333 Cadle Crossing RoadWindsorSCShoplifting / Shoplifting, value $2,00003/05/20212021B0220100738
06/07/2021WoodAmandaNicole12/21/198931WF1409 Brookgreen DrNorth AugustaSCShoplifting / Value $2000 or less (Enhan06/06/20212021A0220101948
06/07/2021StevensJarrelRoyce06/01/199229BM306 Old Meadows DriveAikenSCSEX/criminal sexual conduct w/minor or a12/01/20192021A0220101949
06/05/2021McAlisterTerryMarshall08/18/199526BM124 Kellog DrAikenSCASSAULT/Assault & Battery 3rd degree05/27/20212021A0220101944
06/04/2021LeveretteGwenette10/08/195269BF624 Jasmin DriveAndersonSCWEAPONS/POINTING OR PRESENTING A FIREARM06/04/20212021A0220101940
06/04/2021WilliamsLishaMarie06/20/196952BF413 Plunkett AveAikenSCDUS/DUS not suspended for DUI 3rd or sub06/10/20202021B0220100736
06/04/2021SharpeStevenWyatt12/01/198139WM163 Chestnut StLexingtonSCDUS/DUS not suspended for DUI 3rd or sub01/28/20212021B0220100735
06/04/2021HolderDavidBlake08/14/199526WM208 Pitard RdWintervilleGALarceny / Grand Larceny, value $10,000 o05/13/20212021A0220101941
06/04/2021FordDaseanQuale10/03/199130BM71 Rose StBarnwellSCContempt of Municipal Court Failure to O05/16/20212021B0220100734
06/03/2021FordDaseanQuale10/03/199130BM71 Rose StBarnwellSCContempt of Municipal Court DUS 3rd05/16/20212021B0220100729
06/03/2021CalicuttTimonty02/29/198437WMHomelessAikenSCSHOPLIFTING, VALUE $2,000 OR LESS12/13/20202021B0220100731
06/03/2021HowellKaide03/18/199922WM1066 Nanas PlWindsorSCContempt of Municipal Court Shoplifting12/16/20202021B0220100730
06/02/2021RiversKarenNicole05/12/199922WF81 Driftwood RdBlackvilleSCSHOPLIFTING, VALUE $2,000 OR LESS12/14/20202021B0220100728
05/29/2021ReedBrendaGail11/03/196456WF215 Crestwood DrAikenSCShoplifting / Shoplifting, value $2,00005/22/20212021A0220101910
05/25/2021GrantLinzerJ P04/09/199130BM133 Riverbirch Dr Apt 4 BAikenSCDUI / Driving under the Influence, 1st O08/14/20202021B0220100724
05/25/2021ArthursRandyEarl02/27/198833WM155 Hollow Creek Farm RdAikenSCFAILURE TO COMPLY CITY CODE AMENDED 20011/21/20202021B0220100725
05/25/2021GrantLinzerJ P04/09/199130BM133 Riverbirch Dr Apt 4 BAikenSCDUS / Driving under suspension, license08/14/20202021B0220100723
05/24/2021ShuttleworthKrystinaBrooke11/22/198832WF4094 Columbia Hwy NRidge SpringSCDUS/DUS not suspended for DUI 3rd or sub07/17/20202021B0220100712
05/19/2021BryantCarlosRay05/16/196358BM127 Bo And Bea LnGranitevilleSCBREACH/ Breach of trust with fraudulent02/18/20202021B0220100705
05/19/2021PreciaJamesC12/20/197050BM170 Delehanty CtBeech IslandSCDUI 1st - Breath Alcohol Test Blood Test07/14/20202021B0220100708
05/19/2021WinklerChristanGail05/13/199031WF1151 Cooks Bridge RdAikenSCSHOPLIFTING, VALUE $2,000 OR LESS10/11/20202021B0220100707
05/19/2021CheathamMildred08/30/196754BF125 Ap Rivers StGranitevilleSCDUS 1st /Driving under suspension, lice04/18/20202021B0220100709
05/18/2021JacksonStevenRay09/05/199031BM205 Sunridge Road Apt GAikenSCDomestic / Domestic Violence, 3rd degree05/18/20212021A0220101890
05/17/2021GloverDyronLamont01/09/199031BM887 Lincoln AveAikenSCAssault / Assault & Battery of a High &03/22/20212021A0220101886
05/16/2021GreeneJavontaLatrell07/02/199625BM31 Lee St.DenmarkSCLarceny / Petit or Simple Larceny - $2,004/30/20212021A0220101885
05/14/2021CharleswellNicoleMonique08/08/199328BF4010 Glenside LnAikenSCTELEPHONE/Unlawful Communication after 703/24/20212021A0220101877
05/14/2021CharleswellNicoleMonique08/08/199328BF4010 Glenside LnAikenSCHARASSMENT/STALKING/ 2nd Degree HARASSME03/29/20212021A0220101878
05/12/2021PetersonJohnathanTerraze12/01/198238BM221 Thurmond RdEDGEFIELDSCDUS/DUS not suspended for DUI 3rd or sub01/30/20212021B0220100700
05/11/2021TurnerWayneB08/13/197051BM3621 Alene CirAugustaGADomestic / Domestic Violence, 3rd degree05/11/20212021A0220101860
05/10/2021HammondsTravonneDeshawn10/19/199427BM3315 Colonial DriveAikenSCContempt/Contempt of Municipal Court DOC03/06/20212021B0220100694
05/04/2021DickersonSammyLee09/12/196655BMHomelessAikenSCContempt of Municipal Court - Shopliftin12/29/20202021B0220100682
05/03/2021WilliamsCarmichelDonnell05/12/197645BM202 Young RdFairfaxSCASSAULT/Assault & Battery 1st degree04/21/20212021A0220101832
04/28/2021BrooksAngelaElaine10/13/199427BF810 Brandt Ct Apt CAikenSCDUS / Driving under suspension, license07/17/20202021B0220100680
04/28/2021BrooksAngelaElaine10/13/199427BF810 Brandt Ct Apt CAikenSCDUS 1st /Driving under suspension, lice05/25/20202021B0220100679
04/28/2021WilliamsJoeLarke08/09/197942BM811 Laurens St Apt E1AikenSCDomestic / Domestic Violence, 2nd degree04/25/20212021A0220101810
04/23/2021LewisJohnnieLester11/30/197941BM1450 Wyman StAikenSCRSG / Receiving stolen goods, value $2,011/22/20202021B0220100651
04/23/2021McNamaraBradleyJames11/06/196951WM102 Raintree CtAikenSCRECKLESS DRIVING10/14/20202021B0220100669
04/23/2021SilerJodyLuis10/20/199130WM1036 Bradlyville RdAikenSCRECEIVING STOLEN GOODS $2,000 OR LESS09/23/20202021B0220100641
04/23/2021SmithChasity08/05/198833HF264 Springwood DrAikenSCDUI 1st - Breath Alcohol Test (0.10% )08/19/20202021B0220100666
04/23/2021MartinTiffanyAlexandria12/29/198832BF238 Columbia AveAikenSCDUS / Driving under suspension, license05/28/20202021B0220100655
04/23/2021JacksonDouglas05/11/196853BM411 Marion St N EAikenSCDUS / Driving under suspension, license04/06/20192021B0220100664
04/23/2021MartinTiffanyAlexandria12/29/198832BF238 Columbia AveAikenSCTraffic / Uninsured motor vehicle fee vi05/28/20202021B0220100665
04/23/2021SkinnerKiaraD08/23/200021BF3205 Banker CourtHephzibahGASHOPLIFTING, VALUE $2,000 OR LESS09/24/20202021B0220100668
04/23/2021SilerJodyLuis10/20/199130WM1036 Bradlyville RdAikenSCMalicious Injury to animals, personal pr09/24/20202021B0220100646
04/23/2021MooreErinMichele08/03/199031WF1058 Madison AveAikenSCSHOPLIFTING, VALUE $2,000 OR LESS04/14/20202021B0220100674
04/23/2021Price JrJammelDawed01/21/199823BM129 Taylor StAikenSCBREACH/ Breach of trust with fraudulent05/28/20192021B0220100676
04/23/2021SilerJodyLuis10/20/199130WM1036 Bradlyville RdAikenSCRECEIVING STOLEN GOODS $2,000 OR LESS09/23/20202021B0220100642
04/23/2021SilerJodyLuis10/20/199130WM1036 Bradlyville RdAikenSCRECEIVING STOLEN GOODS $2,000 OR LESS09/23/20202021B0220100644
04/23/2021SilerJodyLuis10/20/199130WM1036 Bradlyville RdAikenSCRECEIVING STOLEN GOODS $2,000 OR LESS08/21/20202021B0220100643
04/23/2021SmithChasity08/05/198833HF264 Springwood DrAikenSCAlcohol / Unlawful storage or transporta08/19/20202021B0220100667
04/23/2021CastleberryStephanieLauren08/08/199427WF1307 Concord AveNorth AugustaSCVehicle / Poss., conceal, sell., or disp06/16/20202021B0220100647
04/20/2021ArthursJamesEric08/30/198833WM925 Wildwood RdAikenSCContempt/Contempt of Municipal Court11/23/20202021B0220100629
04/19/2021BloomerKimberlyDenise12/29/196951WF111 Joy StreetGranitevilleSCSHOPLIFTING, VALUE $2,000 OR LESS04/04/20202021B0220100613
04/19/2021BloomerKimberlyDenise12/29/196951WF111 Joy StreetGranitevilleSCDUS / Driving under suspension, license06/27/20202021B0220100612
04/19/2021AlbrightDanielLancharles12/04/198139WM1298 Williams Evans RoadSpringfieldSCTraffic / Driving without a license - 1s10/21/20202021B0220100621
04/19/2021CopelandJohnAllen08/14/198041BM940 Brald AveAikenSCDUS / Driving under suspension, license09/14/20202021B0220100615
04/19/2021GrimesDevinAntwuan11/16/199426BM355 Project RdWarrenvilleSCDUS / Driving under suspension, license02/23/20202021B0220100617
04/16/2021BrightTyrikGerard10/30/198040BM814 Brandt Ct Apt AAikenSCTRESPASSING/Entering premises after warn06/25/20202021B0220100609
04/16/2021CoatesJamesIkeen06/13/199031BM1457 Aldrich StAikenSCTrespassing / Entering premises after wa04/15/20212021A0220101772
04/16/2021BrightTyrikGerard10/30/198040BM814 Brandt Ct Apt AAikenSCTRESPASSING/Entering premises after warn04/25/20202021B0220100608
04/14/2021BushLakeshiaMonique06/23/198734BF602 Sumter StreetAikenSCDUS/DUS not suspended for DUI 3rd or sub07/20/20202021B0220100602
04/14/2021BushLakeshiaMonique06/23/198734BF602 Sumter StreetAikenSCDUS/DUS not suspended for DUI 3rd or sub10/07/20202021B0220100603
04/13/2021MiddletonJustinChristopher06/15/199625BM1615 Elko StWillistonSCDomestic / Domestic Violence, 2nd degree04/12/20212021A0220101750
04/08/2021WashingtonPierceAnthony10/17/198635BM910 Alfred St N EAikenSCContempt/Contempt of Municipal Court12/24/20172021B0220100589
04/07/2021RuizGenesis01/12/200120HF2577 Whiskey RdAikenSCASSAULT/Assault & Battery 3rd degree04/06/20212021A0220101727
04/07/2021SerranoJoseManuel02/21/198932BM113 Kenmont StAikenSCDomestic / Domestic Violence, 2nd degree04/06/20212021A0220101726
04/05/2021WoodsonCarolynDenise06/15/196853BF1011 Randall StOrlandoFLContempt/Contempt of Municipal Court11/07/20202021B0220100576
04/04/2021RoseIsyah06/12/200120BM1258 Coffey StSumterSCLarceny / Grand Larceny, value more than04/04/20212021A0220101725
04/02/2021Artis IVAlvin09/16/200120BM127 Claflin Dr.AikenSCLarceny / Petit or Simple Larceny - $2,004/02/20212021A0220101716
03/31/2021EngladeVernonW02/08/195170WM834 Patridge Bend RdAikenSCFORGERY < $10,00002/28/20202021A0220101705
03/30/2021TaylorJeffreyWayne06/02/198734WM1560 Still RdBarnwellSCContempt of Municipal Court02/06/20202021B0220100573
03/29/2021KirklandJeremyKyle12/26/197941WM551 Rennie StreetGranitevilleSCRECEIVING STOLEN GOODS $2,000 OR LESS06/26/20192021B0220100572
03/22/2021JacksonStevenRay09/05/199031BM670 Williston RdBeech IslandSCMalicious injury to real property $200003/22/20212021A0220101682
03/17/2021GarrettTarmesiaNati12/16/198238BF979 Georgetown DriveNorth AugustaSCDrugs / Poss. of 28g (1 oz) or less of m06/17/20202021B0220100569
03/17/2021GarrettTarmesiaNati12/16/198238BF979 Georgetown DriveNorth AugustaSCSHOPLIFTING, VALUE $2,000 OR LESS06/17/20202021B0220100570
03/15/2021HansonA' MyahTreshon07/01/200219BF4931 Whiskey RdAikenSCMalicious Injury to Personal Property <$03/15/20212021A0220101662
03/14/2021GloverRonaldJames11/01/197842BM135 Claflin DrAikenSCASSAULT/Assault & Battery 3rd degree03/13/20212021A0220101661
03/10/2021JamesWilliamLeo09/22/199625BMUnkCriminal Sexual Conduct w/ a Minor Victi10/30/20182021A0220101657
03/10/2021JamesWilliamLeo09/22/199625BMUnkCriminal Sexual Conduct w/ a Minor Victi10/20/20172021A0220101656
03/06/2021TilleyCubiaMaurice10/15/198635B312 Pennsylvania AvenueGreerSCHarassment / 2nd degree Harassment03/06/20212021A0220101651
03/04/2021HuttoChristopherLee01/03/199130WM8 Seymour PlNorth AugustaSCChecks / Fraudulent checks or stop payme02/19/20212021A0220101648
03/04/2021MathisTraceyDarryel06/27/196952BM334 Newberry StAikenSCSEX/INDECENT EXPOSURE01/17/20212021A0220101641
02/24/2021SuberStacyKnecolle09/18/198140BF3103 Wilber StreetAugustaGAFINANCIAL TRANSACTION CARD FRAUD<$500 in02/12/20212021A0220101614
02/23/2021FletcherJacquelineAnn08/09/195962BF831 Forest DrBarnwellSCSHOPLIFTING 2ND, VALUE $2,000 OR LESS10/30/20202021A0220101612
02/23/2021FletcherJacquelineAnn08/09/195962BF831 Forest DrBarnwellSCSHOPLIFTING 2ND, VALUE $2,000 OR LESS10/09/20202021A0220101610
02/23/2021FletcherJacquelineAnn08/09/195962BF831 Forest DrBarnwellSCSHOPLIFTING 2ND, VALUE $2,000 OR LESS10/28/20202021A0220101611
02/22/2021CarterAaron06/22/197744BMP.O. BOX 1262AIKENSCLittering / Littering, depositing not mo02/20/20212021A0220101597
02/22/2021CarterAaron06/22/197744BMP.O. BOX 1262AIKENSCWeapons / Possession of Firearm or Ammun02/20/20212021A0220101601
02/22/2021CarterAaron06/22/197744BMP.O. BOX 1262AIKENSCDrugs / Poss. of 28g (1 oz) or less of m02/20/20212021A0220101602
02/22/2021CarterAaron06/22/197744BMP.O. BOX 1262AIKENSCFail to Comply With Order of PSO02/20/20212021A0220101598
02/22/2021CarterAaron06/22/197744BMP.O. BOX 1262AIKENSCDUS / Driving under suspension, license02/20/20212021A0220101599
02/22/2021CarterAaron06/22/197744BMP.O. BOX 1262AIKENSCWeapons / Unlawful carrying of pistol02/20/20212021A0220101600
02/22/2021CarterAaron06/22/197744BMP.O. BOX 1262AIKENSCFAILURE TO STOP FOR BLUE LIGHT/SIREN, NO02/12/20212021A0220101570
02/22/2021CarterAaron06/22/197744BMP.O. BOX 1262AIKENSCDrugs / Possession of Cocaine, 1st offen02/20/20212021A0220101604
02/22/2021CarterAaron06/22/197744BMP.O. BOX 1262AIKENSCDrugs / Poss. of other controlled sub. i02/20/20212021A0220101603
02/18/2021SuberStacyKnecolle09/18/198140BF1223 York Street Apt 9bAikenSCFINANCIAL TRANSACTION CARD FRAUD<$500 in02/18/20212021A0220101577
02/18/2021SuberStacyKnecolle09/18/198140BF1223 York Street Apt 9bAikenSCLARCENY/breaking into motor vehicle or t02/18/20212021A0220101578
02/18/2021SuberStacyKnecolle09/18/198140BF1223 York Street Apt 9bAikenSCFINANCIAL TRANSACTION CARD FRAUD<$500 in02/18/20212021A0220101576
02/18/2021SuberStacyKnecolle09/18/198140BF1223 York Street Apt 9bAikenSCFINANCIAL TRANSACTION CARD THEFT02/18/20212021A0220101574
02/14/2021SaundersMatthewMicheal08/24/199130WM605 Summer Lakes DrAikenSCLarceny / Petit or Simple Larceny - $2,002/14/20212021A0220101562
02/14/2021YeomanSamanthaMarie12/09/197248WF570 Rebal LaneCottagevilleSCLarceny / Petit or Simple Larceny - $2,002/14/20212021A0220101563
02/05/2021ClarkTony09/04/196556BM714 Camellia St NeAikenSCMinor / Contributing to the delinquency01/01/20212021A0220101532
02/04/2021BrookerJoseph10/25/197644BM330 Morgan StAikenSCLarceny / Petit or Simple Larceny - $2,007/01/20202020A0220100690
02/03/2021HollowayTerrell04/14/197546BM17 Mackey Ct.WarrenvilleSCASSAULT/Assault & Battery 3rd degree02/02/20212021A0220101522
02/01/2021KeyCarl02/12/199130WM307 Cary DrBeech IslandSCASSAULT/Assault & Battery 3rd degree02/01/20212021A0220101516
01/31/2021BlockerTiffanyAlysse09/24/198833BF1922 Mississippi AveAikenSCMalicious Injury to animals, personal pr01/29/20212021A0220101513
01/12/2021PadgettDerrellLamont02/07/198041BM411 Chesterfield StAikenSCASSAULT/Assault & Battery 2nd degree01/11/20212021A0220101448
12/29/2020MoseleyRichardB01/03/198041WM289 Old Wagener RoadAikenSCTrespassing / Entering premises after wa12/29/20202020A0220101394
12/27/2020ReddNikitaNichole06/12/198635WF27 Mason WayAikenSCUnlawful Communication12/26/20202020A0220101385
12/19/2020StewartJeromeJr06/29/196259BM90 Maple StreetVarnvilleSCUnlawful Conduct Toward a Child12/19/20202020A0220101347
12/19/2020StewartJeromeJr06/29/196259BM90 Maple StreetVarnvilleSCUnlawful Conduct Toward a Child12/19/20202020A0220101348
12/18/2020StewartJeromeJr06/29/196259BM90 Maple StreetVarnvilleSCCHILD/child endangerment, commit certain12/18/20202020A0220101345
12/18/2020StewartJeromeJr06/29/196259BM90 Maple StreetVarnvilleSCCHILD/child endangerment, commit certain12/18/20202020A0220101346
12/17/2020AlmulkRahimMalik08/02/196061BM2709 Two Notch RoadColumbiaSCShoplifting / Value $2000 or less (Enhan12/13/20202020A0220101341
12/15/2020WestMauriceLamont05/04/197249BM121 Kellogg DriveAikenSCDUS / Driving under suspension, license12/10/20202020A0220101332
12/15/2020WestMauriceLamont05/04/197249BM121 Kellogg DriveAikenSCTraffic / Hit and run, att. vehicle, dut12/10/20202020A0220101333
12/13/2020McNeilKristinaRenee01/17/198734BF1920 Estroff CtAugustaGAShoplifting / Value $2000 or less (Enhan12/06/20202020A0220101323
12/13/2020McNeilKristinaRenee01/17/198734BF1920 Estroff CtAugustaGAShoplifting / Value $2000 or less (Enhan12/12/20202020A0220101325
12/13/2020McNeilKristinaRenee01/17/198734BF1920 Estroff CtAugustaGAShoplifting / Value $2000 or less (Enhan12/11/20202020A0220101324
12/10/2020HickmanKrisMichael05/06/198140BM2724 Ansel StColumbiaSCShoplifting / Value $2000 or less (Enhan04/01/20202020A0220101312
12/03/2020CreechTykendranJe Rhon09/03/199724BM4060 Sandlapper DrAikenSCOBSTRUCTION OF JUSTICE12/03/20202020A0220101296
12/02/2020TooleCarmenLynell06/03/196853BF602 Washington CirAikenSCTRESPASSING/Entering premises after warn02/25/20202020B0220100554
12/01/2020CopelandJohnAllen08/14/198041BM940 Brald AveAikenSCResisting Arrest CITY CODE AMENDED 200106/22/20202020B0220100550
12/01/2020CopelandJohnAllen08/14/198041BM940 Brald AveAikenSCDUS 1st /Driving under suspension, lice06/22/20202020B0220100551
12/01/2020BrodieJosephEarle08/27/196358WM334 Vanderbilt DrAikenSCTRESPASSING/Entering premises after warn05/26/20202020B0220100545
12/01/2020LewisChristopherRonald10/22/198338WM105 Sims StGranitevilleSCSHOPLIFTING, VALUE $2,000 OR LESS05/22/20202020B0220100546
11/25/2020BowensAvaquanaLatrice09/13/199823BF650 Aldrich St. Ne Apt. 5cAikenSCSHOPLIFTING, VALUE $2,000 OR LESS11/25/20202020A0220101280
11/20/2020PoseyAndréDeshawn12/21/199822BM185 Conestoga WayWagenerSCDomestic / Domestic Violence, 2nd degree11/19/20202020A0220101271
11/17/2020HolmesTalmadgeCordell09/19/196754BM536 GWINETTE STAIKENSCASSAULT/Assault & Battery 3rd degree08/29/20202020B0220100535
11/17/2020JacksonAndreLarue01/18/199427BM4336 Edisto RoadAikenSCDUS / Driving under suspension, license08/20/20202020B0220100536
11/17/2020JacksonAndreLarue01/18/199427BM4336 Edisto RoadAikenSCTraffic / Uninsured motor vehicle fee vi08/20/20202020B0220100537
11/17/2020WyattAmandaElaine01/06/199130WF104 Edgemont StAikenSCTRESPASSING/Entering premises after warn07/12/20202020B0220100541
11/17/2020SimpkinsKhalilJaheim03/16/200120BM1317 Park Ave SeAikenSCTraffic / Driving without a license - 1s07/22/20202020B0220100540
11/16/2020CummingsShandaLeanda07/31/197645BF922 Harbison Station CircleColumbiaSCDisorderly / Public disorderly conduct06/10/20202020B0220100531
11/12/2020RubleAdamRobert02/18/199625WM145 Austin Smith RdPelionSCTraffic / Failure to stop for a blue lig11/11/20202020A0220101252
11/12/2020PetersonMelanieCiara10/05/199130BF227 Moriah St.AikenSCDUS 1st /Driving under suspension, lice09/10/20202020B0220100530
11/12/2020StromYakira01/04/200219BF902 Mockingbird LaneAikenSCSHOPLIFTING, VALUE $2,000 OR LESS03/02/20192020B0220100527
11/11/2020RubleAdamRobert02/18/199625WM145 Austin Smith RdPelionSCDUS/DUS not suspended for DUI 3rd or sub11/11/20202020A0220101249
11/11/2020RubleAdamRobert02/18/199625WM145 Austin Smith RdPelionSCTraffic / Habitual Traffic Offenders, DU11/11/20202020A0220101250
11/10/2020RollisonStephanieMichelle09/19/197546WF168 Edgar StreetWarrenvilleSCSHOPLIFTING, VALUE $2,000 OR LESS03/06/20202020B0220100525
11/10/2020JenkinsCornelius08/14/197843BM2923 Eutaw StAikenSCTraffic / Uninsured motor vehicle fee vi09/14/20202020B0220100523
11/10/2020JenkinsCornelius08/14/197843BM2923 Eutaw StAikenSCDUS/DUS not suspended for DUI 3rd or sub09/14/20202020B0220100522
11/09/2020MitchellJerolWilloph08/09/196853BM2810 Meadowbrook DrAugustaGADomestic / Domestic Violence, 2nd degree11/08/20202020A0220101242
11/04/2020JonesAkil07/13/197942BM11 Pipeline Rd.AIKENSCDUI 1st - No Breath Alcohol Test01/24/20202020B0220100519
11/04/2020JonesAkil07/13/197942BM11 Pipeline Rd.AIKENSCDUS/ Driving under suspension, license s01/24/20202020B0220100520
11/03/2020RubleAdamRobert02/18/199625WM145 Austin Smith RdPelionSCContempt/Contempt of Municipal Court DUS10/10/20202020B0220100505
11/02/2020ShellAprilRenee09/29/197843WF120 Nathanie DriveNorth AugustaSCDrugs / Poss. of 28g (1 oz) or less of m05/12/20202020B0220100502
11/02/2020ShellAprilRenee09/29/197843WF120 Nathanie DriveNorth AugustaSCSHOPLIFTING, VALUE $2,000 OR LESS05/12/20202020B0220100501
11/01/2020WilliamsCassiusMohammad07/21/199823BM526 Abbeville Ave. NwAikenSCTELEPHONE/Unlawful Communication after 710/30/20202020A0220101202
10/30/2020SimpkinsFreddieLee11/18/198832BM1237 Melody LnNorth AugustaSCDrugs / Manufacture, distribution, etc.10/29/20202020A0220101197
10/30/2020DanielsRicardoDevince12/31/198040BM66 Bay StBarnwellSCDUI 1st - Breath Alcohol Test (0.10% - 005/20/20202020B0220100495
10/30/2020DanielsRicardoDevince12/31/198040BM66 Bay StBarnwellSCDUS / Driving under suspension, license05/20/20202020B0220100494
10/30/2020SimpkinsFreddieLee11/18/198832BM1237 Melody LnNorth AugustaSCDrugs / Poss. of 28g (1 oz) or less of m10/29/20202020A0220101198
10/30/2020DanielsRicardoDevince12/31/198040BM66 Bay StBarnwellSCALCOHOL/Open Container Beer05/20/20202020B0220100496
10/30/2020SimpkinsFreddieLee11/18/198832BM1237 Mellody LnNorth AugustaSCDrugs / Trafficking in MDMA or ecstasy,10/29/20202020A0220101196
10/29/2020BryantMakenzieJade11/28/200119BF1914 Alan AveAikenSCMalicious Injury to animals, personal pr10/28/20202020A0220101190
10/28/2020MurrayTedrick06/04/197645BM207 Sumter St SeAikenSCShoplifting / Value $2000 or less (Enhan07/26/20202020B0220100487
10/27/2020BarrsClaytonWesley12/28/195664WM757 E Steele WesleyWest ColumbiaSCFORGERY < $10,00010/16/20202020A0220101174
10/22/2020BarrsClaytonWesley12/28/195664WM757 E Steele WesleyWest ColumbiaSCFORGERY < $10,00010/16/20202020A0220101152
10/22/2020BarrsClaytonWesley12/28/195664WM757 E Steele WesleyWest ColumbiaSCFORGERY < $10,00010/16/20202020A0220101153
10/19/2020GoforthOlivia05/19/199328WF2133 Vandivere Rd Apt 2 DAugustaGASHOPLIFTING10/09/20172020B0220100473
10/18/2020BryantArronLevar03/05/199130BM574 Larkin Rice RdSaludaSCDomestic / Domestic Violence, 1st degree10/18/20202020A0220101137
10/16/2020SimpkinsMarqual05/05/199823BM630 Aldrich St Apt 7cAikenSCDrugs/dist, sell, manuf or pwid of cont10/13/20202020A0220101126
10/16/2020SimpkinsMarqual05/05/199823BM630 Aldrich St Apt 7cAikenSCDrugs/dist, sell, manuf or pwid of cont10/13/20202020A0220101127
10/16/2020SimpkinsMarqual05/05/199823BM630 Aldrich St Apt 7cAikenSCWeapons / Possession of Firearm or Ammun10/13/20202020A0220101128
10/16/2020SimpkinsMarqual05/05/199823BM630 Aldrich St Apt 7cAikenSCDrugs/dist, sell, manuf or pwid of cont10/13/20202020A0220101125
10/15/2020HarleyShantylAnikas07/28/199427BF654 Dandelion RowAikenSCMalicious injury to real property $200010/15/20202020A0220101119
10/15/2020HarleyShantylAnikas07/28/199427BF654 Dandelion RowAikenSCTELEPHONE/Unlawful Communication after 710/15/20202020A0220101120
10/15/2020MulletCarrieRachel03/31/199823WF1632 Joyner Pond RdAikenSCDUS 1st /Driving under suspension, lice08/18/20202020B0220100469
10/15/2020Sims-WilliamsAliceMarie06/25/196160BF2110 Harold RoadAugustaGASHOPLIFTING, VALUE $2,000 OR LESS06/09/20202020B0220100464
10/15/2020Sims-WilliamsAliceMarie06/25/196160BF2110 Harold RoadAugustaGASHOPLIFTING, VALUE $2,000 OR LESS06/09/20202020B0220100466
10/15/2020Sims-WilliamsAliceMarie06/25/196160BF2110 Harold RoadAugustaGASHOPLIFTING, VALUE $2,000 OR LESS06/09/20202020B0220100465
10/13/2020McPhersonCameron01/07/200219WM1206 Nocturne LaneNorth AugustaSCDRUGS/Simple Possession Marijuana 28g1st04/11/20202020B0220100453
10/13/2020McPhersonCameron01/07/200219WM1206 Nocturne LaneNorth AugustaSCFAILURE TO COMPLY04/11/20202020B0220100454
10/13/2020SimpkinsMarqual05/05/199823BM630 Aldrich St Apt 7cAikenSCWeapons / Poss. weapon during violent cr10/13/20202020A0220101097
10/13/2020WhiteJavaris04/02/199526BM2017 Merideth TrailAugustaGASHOPLIFTING, VALUE $2,000 OR LESS03/29/20202020B0220100449
10/13/2020WilliamsDezmanDavontaye10/19/199427BM163 Beatty LaneAikenSCFail to Comply With Order of PSO02/12/20202020B0220100455
10/13/2020SimpkinsMarqual05/05/199823BM630 Aldrich St Apt 7cAikenSCDRUGS/Distribution, etc. of methamphetam10/13/20202020A0220101094
10/13/2020SimpkinsMarqual05/05/199823BM630 Aldrich St Apt 7cAikenSCWeapons / Unlawful carrying of pistol10/13/20202020A0220101096
10/13/2020SimpkinsMarqual05/05/199823BM630 Aldrich St Apt 7cAikenSCDrugs / Trafficking in cocaine, 10g or m10/13/20202020A0220101098
10/13/2020WhiteJavaris04/02/199526BM2017 Merideth TrailAugustaGASHOPLIFTING, VALUE $2,000 OR LESS04/01/20202020B0220100450
10/13/2020SimpkinsMarqual05/05/199823BM630 Aldrich St Apt 7cAikenSCDrugs / Manuf., poss. of other sub. in S10/13/20202020A0220101095
10/08/2020TilleyJulious07/12/196457BM336 Solomon Price RoadBarnwellSCDUS 1st /Driving under suspension, lice04/25/20202020B0220100443
10/08/2020TilleyJulious07/12/196457BM336 Solomon Price RoadBarnwellSCTraffic / Uninsured motor vehicle fee vi04/25/20202020B0220100444
10/08/2020GreeneCarl06/16/198635BM1265 Hahn AveAikenSCASSAULT/Assault & Battery 3rd degree06/22/20202020B0220100442
10/07/2020JohnsonTobiasDemetrist01/14/199229BM15 Eastview Rd Lot 20EdgefieldSCProviding False Info to PSO CITY ORDINAN03/07/20202020B0220100431
10/07/2020LewisMichaelRoscoe01/23/197546BM2024 Cook RdAugustaGALarceny / Petit or Simple Larceny - $2,006/01/20202020B0220100427
10/07/2020JohnsonTobiasDemetrist01/14/199229BM15 Eastview Rd Lot 20EdgefieldSCALCOHOL/Open Container Beer03/07/20202020B0220100430
10/07/2020JohnsonTobiasDemetrist01/14/199229BM15 Eastview Rd Lot 20EdgefieldSCDrugs / Poss. of 28g (1 oz) or less of m03/07/20202020B0220100429
10/07/2020JohnsonTobiasDemetrist01/14/199229BM15 Eastview Rd Lot 20EdgefieldSCDUS / Driving under suspension, license03/07/20202020B0220100428
10/05/2020DarnesAmahadDeshawn03/12/200120BM630 Carver Ter NeAikenSCWEAPONS/Sale or delivery of pistol to, a10/05/20202020A0220101068
10/05/2020DarnesAmahadDeshawn03/12/200120BM630 Carver Ter NeAikenSCWeapons / Unlawful carrying of pistol10/05/20202020A0220101069
10/05/2020DarnesAmahadDeshawn03/12/200120BM630 Carver Ter NeAikenSCFail to Comply With Order of PSO10/05/20202020A0220101070
09/30/2020GibsonJohnnyFrank05/07/199922BM401 Gregg AveAikenSCContempt/Contempt of Municipal Court Sho02/16/20202020B0220100425
09/29/2020MotesJamesThomas10/27/199327WM2912 Wagener RdAikenSCASSAULT/Assault & Battery 2nd degree09/28/20202020A0220101044
09/25/2020MomentAdonisElijahwon06/21/198338BM255 Columbia AveAikenSCContempt/Contempt of Municipal Court DUS09/04/20202020B0220100423
09/12/2020SmithVictoriaCourtney06/23/199229WF119 ShannonAikenSCSHOPLIFTING, VALUE $2,000 OR LESS09/12/20202020A0220100978
09/12/2020ScottGregory02/06/199328WM1036 Miter SrLangleySCDrugs / MDP, Narcotic drugs in Sch. I(b)09/12/20202020A0220100984
09/12/2020ScottGregory02/06/199328WM1036 Miter SrLangleySCDRUGS/PWID METHAMPHETAMINES09/12/20202020A0220100985
09/09/2020KearseKaelinAvente08/04/199427BM1331 Senate Dr N WAikenSCPossession of a Stolen Pistol09/09/20202020A0220100972
09/09/2020KearseKaelinAvente08/04/199427BM1331 Senate Dr N WAikenSCPWID MARIJUANA 3RD OFFENSE09/09/20202020A0220100970
09/09/2020KearseKaelinAvente08/04/199427BM1331 Senate Dr N WAikenSCPWID Marijuana 1/2 mile school/parks09/09/20202020A0220100971
09/08/2020SerranoJasmineMarie09/17/199130BF113 Kenmont StAikenSCASSAULT/Assault & Battery 3rd degree09/03/20202020A0220100960
09/08/2020SerranoAshleyMonique08/30/198734BF149 Jon RdWarrenvilleSCASSAULT/Assault & Battery 3rd degree09/03/20202020A0220100961
09/04/2020SerranoJasmineMarie09/17/199130BF113 Kenmont StAikenSCASSAULT/Assault & Battery by Mob, 3rd de09/03/20202020A0220100953
09/04/2020SerranoJasmineMarie09/17/199130BF113 Kenmont StAikenSCASSAULT/Assault & Battery 3rd degree09/03/20202020A0220100956
09/04/2020PopeYuvondaNeshia07/31/198536BF828 Brandt Ct Apt BAikenSCASSAULT/Assault & Battery 3rd degree08/26/20202020A0220100952
09/02/2020PressleyThomasDelvonne09/10/198833BM1081 Heinewan RdSaltersSCDUI 1st - No Breath Alcohol Test (Incomp02/08/20202020B0220100407
09/02/2020PressleyThomasDelvonne09/10/198833BM1081 Heinewan RdSaltersSCDUS 1st /Driving under suspension, lice02/08/20202020B0220100408
09/02/2020WrightDamianMarques02/05/199328BM311 Apt B York St N EAikenSCDUS / Driving under suspension, license05/04/20202020B0220100403
09/02/2020WrightDamianMarques02/05/199328BM311 Apt B York St N EAikenSCTraffic / Child passenger restraint syst05/04/20202020B0220100404
08/31/2020OliverWilliam09/14/199724BM217 Marlboro St. N EAikenSCWEAPONS/POINTING OR PRESENTING A FIREARM08/30/20202020A0220100946
08/31/2020FieldsJamesAllen08/25/198932BFHomelessAikenSCSHOPLIFTING, VALUE $2,000 OR LESS01/25/20202020B0220100402
08/29/2020HarrisonShikeilaConcertina09/18/199229BF141 Saint Johns Pl.WarrenvilleSCASSAULT/Assault & Battery 3rd degree08/29/20202020A0220100932
08/26/2020Price JrJammelDawed01/21/199823BM129 Taylor StAikenSCMalicious injury to real property $200012/18/20192020B0220100395
08/23/2020BoydLatenaMae05/06/197744WF19 Willis RdWarrenvilleSCASSAULT/Assault & Battery 3rd degree08/22/20202020A0220100903
08/20/2020SmithJosephLee01/25/198536WM1707 Plank RdNorth AugustaSCShoplifting / Value $2000 or less (Enhan08/20/20202020A0220100889
08/20/2020SmithJosephLee01/25/198536WM1707 Plank RdNorth AugustaSCTrespassing / Entering premises after wa08/20/20202020A0220100890
08/19/2020Lafayette-JohnsonKaponoMarquis05/08/200219BM100 Sugarwood Dr Apt AAikenSCBREACH/ Breach of trust with fraudulent07/27/20202020A0220100879
08/16/2020TukesStanques11/01/199129BM1153 Cornish StAikenSCUnlawful Conduct Toward a Child08/15/20202020A0220100863
08/16/2020JohnsonTellyRenard12/19/197545BM114 Goodsprings RoadAikenSCMalicious Injury to animals, personal pr08/16/20202020A0220100864
08/16/2020JohnsonTellyRenard12/19/197545BM114 Goodsprings RoadAikenSCMagistrate / Violation of restraining or08/16/20202020A0220100865
08/16/2020TukesStanques11/01/199129BM1153 Cornish StAikenSCDomestic / Domestic Violence, 2nd degree08/15/20202020A0220100862
08/16/2020PhillipsHolleyNichole04/10/198041WF213 W Buena Vista AveNorth AugustaSCShoplifting / Value $2000 or less (Enhan08/06/20202020A0220100869
08/14/2020LewisMichaelWayne09/27/198140WM1951 Lake Dr.WillistonSCMinor / Contributing to the delinquency06/12/20202020A0220100855
08/11/2020CouncilAnthonyChymina09/25/196457BM428 Fairfield StAikenSCDISORDERLY CONDUCT03/21/20202020B0220100380
08/11/2020HoltsizerAustinNathaniel08/24/199625WM113 Bailey CirJacksonSCBREACH/breach of peace, nonaggravated in05/07/20202020B0220100378
08/10/2020JowannaDavidStanley06/12/199031WM294 1st AveRidgelandSCBreach of Trust With Fraudulent Intent l08/08/20202020A0220100835
08/10/2020McManusSpencerAlexandria08/18/198833BM324 Cherokee Street SeAikenSCWEAPONS/Sale, delivery of pistol to,and08/10/20202020A0220100838
08/10/2020JowannaDavidStanley06/12/199031WM294 1st AveRidgelandSCBREACH / Breach of trust with fraudulent07/02/20202020A0220100700
08/10/2020BunnJoseph10/12/197546WM650 Silver Bluff Rd Apt B-3AikenSCDomestic / Domestic Violence, 3rd degree03/25/20202020B0220100374
08/09/2020WilliamsKarenLorene05/28/197645WF937 Wrights Mill RdAikenSCSHOPLIFTING, VALUE $2,000 OR LESS02/22/20202020A0220100837
08/04/2020WhiteLorenzoMarcus03/11/198239BM724 SchrodderAikenSCDRUGS/Simple Possession Marijuana 28g1st01/07/20202020B0220100366
08/02/2020ThomasDemariusAntwoin05/23/199031BM7000 Canvasback CirAikenSCDUS 1st /Driving under suspension, lice08/02/20202020A0220100816
08/02/2020ThomasDemariusAntwoin05/23/199031BM7000 Canvasback CirAikenSCFail to Comply With Order of PSO08/02/20202020A0220100817
07/22/2020DavisRobertCarey01/15/197645WM604 Park Ave S EAikenSCTrespassing / Entering premises after wa07/22/20202020A0220100761
07/22/2020SparksLauraK12/06/196456BF673 Herndon Dairy RdBeech IslandSCBREACH/ Breach of trust with fraudulent06/05/20202020A0220100760
07/18/2020DavisRobertCarey01/15/197645WM604 Park Ave S EAikenSCTrespassing / Entering premises after wa07/18/20202020A0220100748
07/14/2020VaughnWilliamHenry07/25/198041BM1157 Abbeville Ave N WAikenSCASSAULT/Assault & Battery of a hight & a05/13/20202020A0220100734
07/13/2020RobinsonKenyonA07/03/199328BM656 Jackson RoadAllendaleSCReport / Giving false information to law12/16/20192020B0220100330
07/13/2020MoyerCharlotteIlene07/17/198338WF5314 Virginia Hill CtJacksonSCProviding False Info to PSO CITY ORDINAN11/20/20192020B0220100340
07/13/2020MoyerCharlotteIlene07/17/198338WF5314 Virginia Hill CtJacksonSCDUS / Driving under suspension, license11/20/20192020B0220100339
07/12/2020HoffWilliam12/19/198634WM5275 Dinglepond RdSummertonSCFINANCIAL TRANSACTION CARD FRAUD<$500 in06/19/20202020A0220100723
07/11/2020WilliamsPaulGerard11/26/199030BM518 Jonesville AveYemasseeSCSHOPLIFTING, VALUE $2,000 OR LESS 2nd Of07/10/20202020A0220100718
07/10/2020SimpkinsEarnestJeffery01/01/197744BM1368 Congress DriveAikenSCDrugs / Poss. of 28g (1 oz) or less of m01/11/20202020B0220100328
07/10/2020JohnsonLa Renee03/16/198635BF1276 George StAikenSCNo Driver's License (1st Offense)01/28/20202020B0220100309
07/10/2020LowderNicholasEugene01/15/198635WM23 Winthrop DrAikenSCBreach / Obtain signature or prop. under01/12/20202020B0220100323
07/10/2020JohnsonLa Renee03/16/198635BF1276 George StAikenSCFailure to Transfer Registration01/28/20202020B0220100308
07/10/2020BakerJustinRyan01/25/199229WM3722 Old McDuffie RdAugustaGASimple Possession of Marijuana08/12/20172020B0220100292
07/10/2020JohnsonLa Renee03/16/198635BF1276 George StAikenSCTraffic / Uninsured motor vehicle fee vi01/28/20202020B0220100310
07/10/2020GrateTyreakR01/31/199229BM991 Neilson StAikenSCOperating Uninsured MV07/02/20172020B0220100306
07/10/2020FieldDonaldDevelvous04/04/198635BM8031 Kiwi CourtAikenSCDUS 1st /Driving under suspension, lice10/30/20192020B0220100299
07/10/2020HamptonDaiqonMarquise01/22/199427BM1354 Hampton AvenueAikenSCASSAULT/Assault & Battery 3rd degree10/09/20192020B0220100295
07/10/2020FordBrandonChristian07/03/198437WM177 Nautilus StreetAikenSCProviding False Info to PSO CITY ORDINAN01/17/20182020B0220100300
07/10/2020SimpkinsEarnestJeffery01/01/197744BM1368 Congress DriveAikenSCDUI 1st - Breath Alcohol Test .0201/11/20202020B0220100327
07/10/2020GrateTyreakR01/31/199229BM991 Neilson StAikenSCDUS 1st /Driving under suspension, lice07/02/20172020B0220100307
07/10/2020FieldDonaldDevelvous04/04/198635BM8031 Kiwi CourtAikenSCOperating/Allow Operation Uninsured MV10/30/20192020B0220100298
07/10/2020BakerJustinRyan01/25/199229WM3722 Old McDuffie RdAugustaGADRUGS/Simple Possession Marijuana12/16/20182020B0220100293
07/10/2020TylerLarryDarnell12/06/197842BM676 Kershaw St NeAikenSCDUS / Driving under suspension, license02/14/20202020B0220100324
07/10/2020BakerJustinRyan01/25/199229WM3722 Old McDuffie RdAugustaGAMalicious Injury to animals, personal pr08/12/20172020B0220100291
07/10/2020RutlandBeverly06/22/197348WF540 3rd StreetWarrenvilleSCSHOPLIFTING, VALUE $2,000 OR LESS11/23/20192020B0220100314
07/10/2020RobinsonKenyonA07/03/199328BM656 Jackson RoadAllendaleSCDUS 1st /Driving under suspension, lice12/16/20192020B0220100313
07/10/2020SimpkinsEarnestJeffery01/01/197744BM1368 Congress DriveAikenSCDUS 1st /Driving under suspension, lice01/11/20202020B0220100329
07/10/2020ReddCraigAllen02/02/199328WM135 Center AveKeysvilleGASHOPLIFTING, VALUE $2,000 OR LESS10/21/20192020B0220100311
07/10/2020LowderNicholasEugene01/15/198635WM23 Winthrop DrAikenSCBreach / Obtain signature or prop. under01/13/20202020B0220100321
07/09/2020BeckowitzTravis01/05/199328WM101 Jehossee Dr SeAikenSCContempt/Contempt of Municipal Court Mal05/24/20202020B0220100284
07/09/2020SerranoJuanAntonio04/22/199031BM113 Kenmont StAikenSCWEAPONS/POINTING OR PRESENTING A FIREARM07/09/20202020A0220100711
07/08/2020MathisRaekwon04/27/199625BM727 Brucewood St NwAikenSCMalicious injury to real property $200001/14/20202020B0220100282
07/07/2020BakerJustinRyan01/25/199229WM3722 Old McDuffie RdAugustaGAMalicious Injury to animals, personal pr12/16/20182020B0220100269
07/07/2020BakerJustinRyan01/25/199229WM3722 Old McDuffie RdAugustaGAASSAULT/Assault & Battery 3rd degree12/16/20182020B0220100270
07/07/2020CooperStephenM01/05/196952WM204 Bandy DriveLANGLEYSCSHOPLIFTING, VALUE $2,000 OR LESS04/16/20202020B0220100272
07/05/2020DrummingsJamesAllen03/20/196061BM182 Gun Range RdAIKENSCASSAULT/Assault & Battery 3rd degree07/05/20202020A0220100702
07/02/2020WilliamsDezmondDavontaye10/19/199427BM163 Beatty LaneAikenSCContempt/Contempt of Municipal Court Fai02/12/20202020B0220100263
06/21/2020BlashShantoriaSydney02/07/199823BF156 Kimbrell St Apt C6WalterboroSCWEAPONS/POINTING OR PRESENTING A FIREARM06/21/20202020A0220100645
06/10/2020BrewtonMakaylaShirnell05/15/200021BF111 Scenic Lake DrNorth AugustaSCSHOPLIFTING, VALUE $2,000 OR LESS06/04/20202020A0220100601
06/07/2020WilsonBrianChristopher02/07/199130BM101 Clara LnAndersonSCSHOPLIFTING, VALUE $2,000 OR LESS05/18/20202020A0220100590
06/05/2020MathisRaekwon04/27/199625BM727 Brucewood St NwAikenSCContempt of Municipal Court DUS 3RD03/25/20202020B0220100213
06/02/2020KempMontaviusAquise01/22/200120BM919 Mockingbird LnAikenSCDomestic / Domestic Violence, 3rd degree06/01/20202020A0220100568
05/29/2020FarmerKaleenaM10/09/198140BF131 Kalmia CircleAikenSCLarceny / Petit or Simple Larceny - $2,005/18/20202020A0220100560
05/29/2020DeanJacobyAlexander05/06/197942BM130 Brentwood DrAIKENSCLarceny / Petit or Simple Larceny - $2,005/29/20202020A0220100559
05/28/2020Horsley-EdwardNekisha01/29/197843BM1353 Senate Dr NwAikenSCSHOPLIFTING, VALUE $2,000 OR LESS05/28/20202020A0220100554
05/26/2020WilsonBrianChristopher02/07/199130BM101 Clara LnAndersonSCShoplifting / Value $2000 or less (Enhan05/23/20202020A0220100539
05/23/2020MenardChristopher02/28/198239WM1016 Evans RoadAikenSCSHOPLIFTING, VALUE $2,000 OR LESS05/16/20202020A0220100528
05/22/2020BladesPauletteRena03/25/196655BF4028 Madison LnAugustaGABREACH/ Breach of trust with fraudulent01/15/20202020A0220100527
05/09/2020HardenIrisNicole02/28/198239WF409 Duncan RoadGranitevilleSCDrugs / Manuf., poss. of other sub. in S04/26/20202020A0220100493
05/08/2020HardenIrisNicole02/28/198239WF409 Duncan RoadGranitevilleSCDRUGS/POSSESSION OF LSD/HERION, 1ST OFFE04/26/20202020A0220100490
05/07/2020GriffinTanjenekaShantrell09/17/199229BF632 Schroder Ave N EAikenSCLarceny / Petit or Simple Larceny - $2,005/04/20202020A0220100487
04/30/2020TurnerRebeccaAnn05/04/198140WF180 Carie RdPelionSCSHOPLIFTING, VALUE $2,000 OR LESS04/30/20202020A0220100465
04/27/2020IngramLawrenceW12/02/198040WM132 Viceroy LnWarrenvilleSCSHOPLIFTING, VALUE $2,000 OR LESS09/21/20172019B0220100134
04/26/2020GreenRolandLee Dolphus05/01/197744WM187 Huber Clay RdWarrenvilleSCSHOPLIFTING, VALUE $2,000 OR LESS04/26/20202020A0220100450
04/20/2020AndrewsMcKenzieMichelle08/29/199922BF3682 Deans Bridge RdHephzibahGAFORGERY < $10,00001/31/20202020A0220100429
04/14/2020PattenMarquanShykien02/14/199724BM856 Lincoln AveAikenSCMalicious Injury to animals, personal pr04/14/20202020A0220100413
04/09/2020DixonAntoneshaRashae09/26/199625BF201 E Telfair St. Apt. 150AugustaGABREACH/ Breach of trust with fraudulent04/06/20202020A0220100379
04/05/2020BurrissJamesMark03/27/197843WM313 Palmetto ParkwayBeltonSCMalicious Injury to animals, personal pr04/05/20202020A0220100373
04/02/2020MooreEricaSheree11/11/197446BF69 Montfomery StGranitevilleSCShoplifting / Value $2000 or less (Enhan04/02/20202020A0220100362
04/01/2020SaundersHaleyMelissa04/07/199328WF13831 Queenswater LnAikenSCLarceny / Grand Larceny, value $10,000 o04/01/20202020A0220100361
03/31/2020JamesAnthony10/23/197050BM340 Fredrick StreetDenmarkSCDomestic / Domestic Violence, 3rd degree03/31/20202020A0220100355
03/22/2020BlackJosephAdam02/08/198536WM158 Shelby Dr.AikenSCBreach of Trust With Fraudulent Intent l03/17/20202020A0220100319
03/16/2020BottomsKyneriaNya08/21/199922BF430 Hampton Ave NwAikenSCHarassment / 2nd degree Harassment03/07/20202020A0220100295
03/13/2020StapletonSarahLynn06/29/198338WFSHOPLIFTING, VALUE $2,000 OR LESS02/26/20202020A0220100284
03/10/2020TerryAlexandriaLeona03/14/199625BF144 Squire StreetAikenSCOperating/Allow Operation Uninsured MV12/20/20192020B0220100159
03/10/2020RogersShaquintaMonique07/04/199526151 Graves RdRoxboroNCDUI 1st - No Breath Alcohol Test12/22/20192020B0220100162
03/10/2020TerryAlexandriaLeona03/14/199625BF144 Squire StreetAikenSCDUS / Driving under suspension, license12/20/20192020B0220100160
02/27/2020DaughenbaughDeannaMarie11/03/196753WF3023 1/2 Washington RdAugustaGANo Driver's License (1st Offense)09/12/20192020B0220100131
02/26/2020JohnsonTyrinMarket12/21/199723BM1020 Wheeler RoadAikenSCDRUGS/Simple Possession Marijuana 28g1st08/02/20192020B0220100124
02/26/2020Teti JrPaulWilliam11/17/198139WM126 Sierra DrAikenSCFORGERY < $10,00001/29/20202020A0220100241
02/24/2020FredricksAnthony10/27/196456BM499 Shiloh Heights RoadAikenSCDUS 1st /Driving under suspension, lice12/01/20192020B0220100120
02/20/2020GrahamCharles01/05/196952BM1082 Wormarth RdNorth AugustaSCDUS / Driving under suspension, license10/02/20192020B0220100117
02/17/2020SimpkinsMelindaTeresa03/03/196952BF2181 Sassafrass DriveAikenSCSHOPLIFTING, VALUE $2,000 OR LESS08/31/20172017A0220100917
02/12/2020WoodenYasmeonnaLeasea10/19/200021BM765 Ridge RdAikenSCNo Driver's License (1st Offense)11/06/20192020B0220100096
02/10/2020CumbeeHeatherAnn11/10/198238WF2654 Columbia HwyAikenSCFINANCIAL TRANSACTION CARD FRAUD<$500 in09/03/20192020A0220100179
01/30/2020LongAlyssaAnnette07/05/200120BF645 Ascauga Lake RdGranitevilleSCFINANCIAL TRANSACTION CARD FRAUD<$500 in01/19/20202020A0220100123
01/30/2020LongAlyssaAnnette07/05/200120BF645 Ascauga Lake RdGranitevilleSCLarceny / Petit or Simple Larceny - $2,001/19/20202020A0220100122
01/28/2020MaxeyRachelMichelle07/22/198437WF756 Oak Ridge Club RdWindsorSCOperating/Allow Operation Uninsured MV05/17/20192020B0220100043
01/28/2020MaxeyRachelMichelle07/22/198437WF756 Oak Ridge Club RdWindsorSCFail to Transfer /Use of license plate o05/17/20192020B0220100042
01/28/2020MaxeyRachelMichelle07/22/198437WF756 Oak Ridge Club RdWindsorSCDUS 1st /Driving under suspension, lice05/17/20192020B0220100044
01/27/2020BaconRonnie12/08/199327BM510 Ridgeview ManorNorth AugustaSCMalicious injury to real property $200001/26/20202020A0220100099
01/25/2020GilchristAndyAlexis08/22/198239BM724 Sommer StAikenSCLarceny / Petit or Simple Larceny - $2,001/24/20202020A0220100096
01/23/2020BennonKentrellL12/18/199426BM182 Gregg StreetGranitevilleSCDomestic / Domestic Violence, 2nd degree01/23/20202020A0220100086
01/21/2020WalkerRooseveltAykee06/05/198140BM514 Abbeville AvenueAIKENSCTRESPASSING/Entering premises after warn09/14/20192020B0220100033
01/21/2020CreechErica03/04/197744BF105 Jay StreetBARNWELLSCSHOPLIFTING, VALUE $2,000 OR LESS09/17/20192020B0220100034
01/14/2020DavenportKayaunaAriel10/21/199625BF4532 Madison AveNewport NewsVAMalicious Injury to animals, personal pr09/14/20182020B0220100019
01/14/2020PettisTedLee09/19/195962WM5082 Silverleaf WayAikenSCSHOPLIFTING, VALUE $2,000 OR LESS09/21/20192020B0220100021
01/14/2020PettisTedLee09/19/195962WM5082 Silverleaf WayAikenSCSHOPLIFTING, VALUE $2,000 OR LESS07/31/20192020B0220100022
01/14/2020DavenportKayaunaAriel10/21/199625BF4532 Madison AveNewport NewsVADomestic / Domestic Violence, 3rd degree09/14/20182020B0220100018
01/13/2020ArdNickeyLee02/03/200021WM717 Winged Foot DrAikenSCBREACH / Breach of trust with fraudulent05/18/20182018A0220100406
01/09/2020StromanElizabethWilliams11/11/198832WF434 Morgan AveNorth AugustaSCSHOPLIFTING, VALUE $2,000 OR LESS08/25/20192020B0220100012
01/09/2020KingDawnDyches10/09/196061WF2526 Ashland RdColumbiaSCOBTAIN SIGNATURE/ PROPERTY BY FALSE PRET11/12/20192020A0220100043
01/09/2020GillPernnelMacEnzie01/17/198833BM187 Catfish RdBarnwellSCDUS 1st /Driving under suspension, lice10/02/20192020B0220100011
01/02/2020RaineyJordanTravor01/16/200120BM431 Lawana DriveGlovervilleSCASSAULT/Assault & Battery 3rd degree12/31/20192020A0220100009
12/26/2019BurkeDerekJames12/22/199426WM441 Cooper DrAikenSCSHOPLIFTING, VALUE $2,000 OR LESS09/10/20182019B0220100651
12/15/2019KimpsonOrlandriusJamar03/05/199724BM146 Fame Ln.OrangeburgSCDomestic / Domestic Violence, 2nd degree11/26/20192019A0220101193
12/10/2019BrownBrandiNicole02/08/199526WF124 Beas WayJacksonSCBREACH/ Breach of trust with fraudulent11/10/20182019B0220100633
11/27/2019GreenAlyshaMonique06/05/199625BF3056 Home RoadAikenSCTraffic / Disregarding stop sign06/24/20192019B0220100614
11/27/2019GreenAlyshaMonique06/05/199625BF3056 Home RoadAikenSCDUS / Driving under suspension, license06/24/20192019B0220100613
11/27/2019DawkinsDariusJohn02/18/197150BM427 Greenville StreetAikenSCSHOPLIFTING, VALUE $2,000 OR LESS08/31/20192019B0220100615
11/20/2019BerrianJimmy Lee01/04/199031BM1916 Richmond Ave Apt BAugustaGAWEAPONS/POINTING OR PRESENTING A FIREARM05/12/19902019A0220100372
11/19/2019MorrisJosephAndrew01/07/199328WM146 Ericka LnRidge SpringSCTELEPHONE/Unlawful Communication after 711/19/20192019A0220101100
11/13/2019WilliamsWesleyWayne06/23/199922WM13277 Church StWillistonSCBreach of Trust More than $2,000 but les10/10/20192019A0220101082
11/07/2019BlockerOctaviaMonique05/30/199328BF155 Weaver StAikenSCContempt of Municipal Court DUS 3RD09/26/20192019B0220100584
11/05/2019DavenportTomazMandell05/02/198437BM132 Dean RoadSaludaSCDUI 1st - REFUSE06/15/20192019B0220100577
11/05/2019DavenportTomazMandell05/02/198437BM132 Dean RoadSaludaSCDUS / Driving under suspension, license06/15/20192019B0220100576
10/29/2019Green JrMarkSteven08/22/199625BM756 Crossroads Park DrAikenSCNo Driver's License (1st Offense)09/06/20192019B0220100566
10/29/2019Green JrMarkSteven08/22/199625BM756 Crossroads Park DrAikenSCTraffic / Operating vehicle on highway w02/07/20192019B0220100567
10/27/2019AlbertsonWilliamLee01/01/1753268WM915 Fallaw RdGastonSCFAILURE TO STOP FOR BLUE LIGHT/SIREN, NO10/27/20192019A0220101013
10/27/2019AlbertsonWilliamLee01/01/1753268WM915 Fallaw RdGastonSCMalicious injury to real property $200010/27/20192019A0220101014
10/23/2019WilliamsRichardDean01/18/198932BM310 Freiday LnAikenSCDomestic / Domestic Violence, 2nd degree10/23/20192019A0220100993
10/14/2019DawkinsEzachias07/15/197843BM1200 West Martintown RdNorth AugustaSCDUS 2nd,/Driving under suspension, licen04/09/20192019B0220100534
10/13/2019SpannStefanoAl09/05/198635BM376 Gregory RdAIKENSCASSAULT/Assault & Battery 3rd degree10/13/20192019A0220100969
10/08/2019IsaacJamesOtis05/16/196556BM1170 Abbeville Ave NwAikenSCSHOPLIFTING, VALUE $2,000 OR LESS10/08/20192019A0220100953
10/06/2019SelbyMichaelThomas07/24/198734BM347 Union St NeAikenSCDUS / Driving under suspension, license10/05/20192019A0220100943
10/06/2019SelbyMichaelThomas07/24/198734BM347 Union St NeAikenSCFailure to Comply with a PSO10/05/20192019A0220100941
10/05/2019SelbyMichaelThomas07/24/198734BM347 Union St NeAikenSCFAILURE TO STOP FOR BLUE LIGHT/SIREN, NO10/05/20192019A0220100939
10/01/2019JacksonMichaelWayne08/20/197051BM104 Crawford StRidge SpringSCLarceny/Fail to return rented objects, f09/17/20192019A0220100934
09/30/2019BoydLesaiRochelle07/10/199130BF139 Myrtle RdSaludaSCDUI 1st - Breath Alcohol Test < 0.10%09/16/20182019B0220100510
09/17/2019LewkowiczJackJohn04/05/195566WM484 Crystal Peak RdGranitevilleSCSHOPLIFTING, VALUE $2,000 OR LESS03/19/20192019A0220100875
09/16/2019HuggingJaylinJoseph04/23/200120BM155 Horry NeAikenSCTRESPASSING/Entering premises after warn06/12/20182019B0220100495
09/14/2019SimsChristopherRalph03/07/198932BM1048 Nottingham DrSumterSCShoplifting / Value more than $2,000 and09/04/20192019A0220100863
09/12/2019RainesTandaBernise07/11/198041WF20 Cleveland RdJohnstonSCDRUGS/UNLAWFUL POSS,DISPOSE or DISTRIBUT09/12/20192019A0220100852
09/12/2019RainesTandaBernise07/11/198041WF20 Cleveland RdJohnstonSCDrugs / Poss. of 28g (1 oz) or less of m09/12/20192019A0220100853
09/12/2019RainesTandaBernise07/11/198041WF20 Cleveland RdJohnstonSCDrugs / Poss. of narc. in Schedule I(b),09/12/20192019A0220100855
09/12/2019RainesTandaBernise07/11/198041WF20 Cleveland RdJohnstonSCDrugs / Trafficking in meth or cocaine b09/12/20192019A0220100851
09/04/2019ThomasAlexanderClayton01/14/198338WM9346 Brooks Cluster CircleUppervilleVAMalicious Injury to animals, personal pr07/07/20192019A0220100802
08/27/2019DunbarAaronBarnette10/26/198931BM241 Marie StWillistonSCDRUGS/Simple Possession Marijuana01/06/20192019B0220100477
08/22/2019ReddingBarryJ02/14/198338BM395 Gregory RdAikenSCDUS 1st /Driving under suspension, lice05/31/20192019B0220100467
08/22/2019WootenAngelaL Boatwright11/09/196456WF103 Apache DrWarrenvilleSCSHOPLIFTING, VALUE $2,000 OR LESS08/09/20182019B0220100462
08/20/2019ThomasEugeniaFinny09/19/196457B532 Hampton Ave Apt AAikenSCLarceny / Petit or Simple Larceny - $2,010/31/20182019B0220100461
08/20/2019WoodsJoshuaJonta02/17/199427BM7582 Saybrook TrailJonesboroGASHOPLIFTING, VALUE $2,000 OR LESS08/20/20192019A0220100742
08/11/2019LewkowiczJackJohn04/05/195566WM484 Crystal Peak RdGranitevilleSCSHOPLIFTING 1ST VALUE $2,000 OR LESS08/09/20192019A0220100708
07/31/2019WilliamsPhillipTyrone12/11/198337BM335 Kelly StWillistonSCDUS 1st /Driving under suspension, lice04/05/20192019B0220100437
07/30/2019ShannonChasity06/13/197942BF2121 Shamrock DrAugustaGASHOPLIFTING, VALUE $2,000 OR LESS07/27/20192019A0220100671
07/29/2019WilliamsCatilinBeth02/05/198833WF335 Kelly StWillistonSCDRUGS/Simple Possession Marijuana04/05/20192019B0220100434
07/29/2019ReedJenniferR03/04/197447BF88 Nottingham Rd Apt 123WillistonSCNo Driver's License (1st Offense)06/02/20192019B0220100436
07/26/2019WestTimothyJames12/06/197644WM4738 Edmund HwyWest ColumbiaSCSHOPLIFTING, VALUE $2,000 OR LESS07/23/20192019A0220100655
07/25/2019DavisJosephAnthony12/23/196357WM309 Carpenter StWest ColumbiaSCLarceny / Grand Larceny, value $10,000 o07/12/20192019A0220100649
07/25/2019DavisJohnAllen10/17/196754WM309 Carpenter StWest ColumbiaSCPetit or Simple Larceny- $2,000 OR LESS07/19/20192019A0220100647
07/25/2019DavisJohnAllen10/17/196754WM309 Carpenter StWest ColumbiaSCLarceny / Grand Larceny, value $10,000 o07/12/20192019A0220100645
07/25/2019DavisJosephAnthony12/23/196357WM309 Carpenter StWest ColumbiaSCPetit or Simple Larceny- $2,000 OR LESS07/19/20192019A0220100650
07/25/2019DavisJosephAnthony12/23/196357WM309 Carpenter StWest ColumbiaSCBurglary / Safecracking07/12/20192019A0220100648
07/25/2019DavisJohnAllen10/17/196754WM309 Carpenter StWest ColumbiaSCBurglary / Safecracking07/12/20192019A0220100646
07/09/2019FelderBettyAnn09/10/196556BF1035 Pinecrest AveAikenSCTraffic / Driving on roadways laned Dri04/01/20192019B0220100407
07/09/2019FelderBettyAnn09/10/196556BF1035 Pinecrest AveAikenSCNo Driver's License (1st Offense)04/01/20192019B0220100406
07/01/2019RouseTerryMezak06/14/198536BM656 Woodyard Rd Apt 3TrentonSCFail to Comply With Order of PSO05/03/20192019B0220100382
06/29/2019DraytonEddieDontrel09/24/199031BM145 Sumter St N EAikenSCMalicious Injury to animals, personal pr06/28/20192019A0220100542
06/29/2019CummingsJermaine12/25/198436BM310 W Hugh St Apt 405North AugustaSCTELEPHONE/Unlawful Communication after 706/28/20192019A0220100543
06/25/2019Jackson JrDonaldFitzgerald08/09/199130BM214 Boyd Branch RdSaludaSCDisorderly / Public disorderly conduct02/09/20192019B0220100375
06/25/2019Jackson JrDonaldFitzgerald08/09/199130BM214 Boyd Branch RdSaludaSCDUS 2nd,/Driving under suspension, licen02/09/20192019B0220100374
06/24/2019HolmesMarceleDieon09/02/199427BM654 Horry St N EAikenSCDomestic / Domestic Violence, 2nd degree06/24/20192019A0220100528
06/19/2019BakerKhalilMalik Ali06/25/199823BM1 Nancy Ln Se Aptb BAikenSCDUS 1st03/26/20192019B0220100363
06/18/2019BuxtonSherilynD09/30/196754BF9084 Sc Highway 39WillistonSCOperating/Allow Operation Uninsured MV12/02/20182019B0220100354
06/18/2019WoodDanny06/26/199724BM601 Taylor StreetAugustaGALarceny / Petit or Simple Larceny - $2,006/13/20192019A0220100507
06/13/2019CobbsCynthiaAndrea01/13/197150BF727 Washington CircleAikenSCDUS 1st02/23/20192019B0220100348
06/11/2019RauchMichaelJacobie11/28/198337BM1450 Broad StLeesvilleSCDUI 1st - .1003/23/20192019B0220100344
06/04/2019AlexanderVictoriaLee11/03/198139WF2098 Edgefield HwyAikenSCDUS 1st /Driving under suspension, lice02/03/20192019B0220100323
06/03/2019McKevieTroyAvery12/29/199327BM32 Kimberly Acres DrJacksonSCFail to Comply With Order of PSO03/12/20192019B0220100314
05/30/2019BoatwrightBlakeNathanul05/05/199130WM205 Boone RdOrangeburgSCDUS 1st /Driving under suspension, lice05/30/20192019A0220100445
05/30/2019BoatwrightBlakeNathanul05/05/199130WM205 Boone RdOrangeburgSCLarceny / Petit or Simple Larceny - $2,005/30/20192019A0220100446
05/29/2019TubazzahDecostaMyshada01/05/197348BM270 Whispering Pines TerAikenSCSHOPLIFTING, VALUE $2,000 OR LESS06/09/20182019B0220100306
05/21/2019MorrisLorettaMichelle08/24/199823WF164 Main StJacksonSCProviding False Info to PSO CITY ORDINAN06/23/20182019B0220100294
05/14/2019DawkinsColieDee11/13/198337BM1005 Kalmia Apt LnGranitevilleSCNo Driver's License (1st Offense)04/02/20192019B0220100272
05/13/2019BerrianJimmy Lee01/04/199031BM1916 Richmond Ave Apt BAugustaGAWeapons/UNLAWFUL CARRYING OF PISTOL05/12/20192019A0220100374
05/13/2019BerrianJimmy Lee01/04/199031BM1916 Richmond Ave Apt BAugustaGADischarging F/Arm in City05/13/20192019A0220100375
05/13/2019BerrianJimmy Lee01/04/199031BM1916 Richmond Ave Apt BAugustaGAASSAULT/Assault & Battery 1st degree05/12/20192019A0220100373
05/11/2019GraysKimberly11/11/197347BF210 Cherokee St SeAikenSCASSAULT/Assault & Battery 3rd degree05/11/20192019A0220100369
05/11/2019CraftonAhmadMarquse06/02/198635BM199 Stanley CtLexingtonSCTraffic / Hit and run, att. vehicle, dut05/11/20192019A0220100370
05/08/2019AblesJohnHenry11/22/199723BM109 Family Cir RdWagnerSCDRUGS/Simple Possession Marijuana10/06/20182018B0220100693
05/07/2019GoodwinJessieClarence04/08/197942WM3867 Hensley TdAugustaGANo Driver's License (1st Offense)01/16/20192019B0220100257
05/01/2019CaveJamesRaymond10/31/197644BM483 Plunkett AveAIKENSCREPORT/Provide False Information to Law12/03/20182019B0220100238
04/23/2019MorganHarry11/14/197545BM140 Cyndee Cr CtMartinezGASHOPLIFTING, VALUE $2,000 OR LESS01/16/20192019B0220100229
04/22/2019EppersonTishaunaNichole05/25/198338WF103 Keen AveNew EllentonSCProviding False Info to PSO CITY ORDINAN04/21/20192019A0220100296
04/17/2019JacksonFrankJames07/02/198041BM829 D'antignacAugustaGADisorderly / Public disorderly conduct10/23/20182019B0220100217
04/17/2019JacksonFrankJames07/02/198041BM829 D'antignacAugustaGATRESPASSING/Entering premises after warn11/26/20182019B0220100216
04/17/2019JacksonFrankJames07/02/198041BM829 D'antignacAugustaGATrespassing10/08/20182019B0220100219
04/17/2019JacksonFrankJames07/02/198041BM829 D'antignacAugustaGADRUGS/Simple Possession Marijuana10/23/20182019B0220100218
04/16/2019DooleyKathrynElizabeth07/27/197843WF111 Medwell HillAikenSCLarceny / Petit or Simple Larceny - $2,004/12/20192019A0220100284
04/13/2019HammondsShawn08/18/199823BF2195 Appleton RoadAllendaleSCSHOPLIFTING, VALUE $2,000 OR LESS04/12/20192019A0220100278
04/11/2019GreenDavidAntonio09/28/198239BM512 Camel StNew EllentonSCDUI 1st - No Breath Alcohol Test09/29/20182019B0220100197
04/03/2019PooleStephanAndree10/16/198140BM1113 Cooks Bridge RdAikenSCDUS 1st /Driving under suspension, lice01/12/20192019B0220100177
04/03/2019PooleStephanAndree10/16/198140BM1113 Cooks Bridge RdAikenSCALCOHOL/Open Container Beer01/12/20192019B0220100178
04/03/2019PooleStephanAndree10/16/198140BM1113 Cooks Bridge RdAikenSCDUI 1st -01/12/20192019B0220100176
03/27/2019DoyleJimmie03/28/196754BM245 Kershaw St. NeAikenSCASSAULT/Assault & Battery 3rd degree12/25/20182019B0220100157
03/18/2019WhiteAhshiaElyese01/10/198932BF1039 Carriage Dr. Apt BAikenSCTHREAT/THREATENING A PUBLIC OFFICIAL, TE06/28/20182019B0220100142
03/13/2019Vargas LasalleJustoL07/12/198734HM1200 West Martingtown Rd 301North AugustaSCNo Driver's License (1st Offense)11/07/20182019B0220100133
03/13/2019BrownBenardM05/18/198833BM1004 Foucan CtAikenSCNo Driver's License (1st Offense)12/01/20182019B0220100123
03/07/2019ElPersia10/18/198437BF1546 Hamilton Dr Apt 102AikenSCASSAULT/Assault & Battery 3rd degree03/07/20192019A0220100153
03/06/2019Peter ChemmalakuzhySaju05/25/197150IM501 Churchill CircleAikenSCBreach of Trust with Fraudulent Intent,03/06/20192019A0220100151
03/05/2019WilhelmPaulRussell03/20/196457WM1105 Elon StAikenSCDUI 1st - Breath Alcohol Test 0.08%08/08/20182019B0220100106
03/05/2019MyrickYesicaA04/08/197942HF1921 Newland Rd.CharlotteNCSHOPLIFTING, VALUE $2,000 OR LESS02/28/20192019A0220100150
02/09/2019JacksonFrankJames07/02/198041BM829 D'antignacAugustaGATRESPASSING/Entering premises after warn02/08/20192019A0220100102
01/23/2019MackArthurLee01/22/198437BM2522 Wire RdAikenSCDUS/ DUS 4TH Offense07/29/20182019B0220100058
01/15/2019JettRalishaKenae08/01/199724BF722 Douglas St Apt 2eCamdenSCSHOPLIFTING, VALUE $2,000 OR LESS MUST A07/06/20162019B0220100034
01/09/2019Brown IIIDallasJackson05/14/198734BM3406 Roses RunAikenSCDUS 1st /Driving under suspension, lice10/31/20182019B0220100025
01/09/2019Brown IIIDallasJackson05/14/198734BM3406 Roses RunAikenSCOperating/Allow Operation Uninsured MV10/31/20182019B0220100024
01/08/2019OdomLarry10/05/195665BM1304 Grove BlvdNorth AugustaSCTRESPASSING/Entering premises after warn06/22/20182019B0220100016
01/08/2019OdomLarry10/05/195665BM1304 Grove BlvdNorth AugustaSCSOLICITING W/OUT PERMIT11/25/20052019B0220100015
01/05/2019JohnsonRoshandaLaynet01/09/197843BF3033 Old Powderhouse RoadAikenSCBREACH/breach of trust with fraudulent i09/04/20182019A0220100008
12/31/2018Johnson IIChristopher01/01/1753268BM343 Fairfield St NeAikenSCTELEPHONE/Unlawful Communication after 712/30/20182018A0220101058
12/13/2018RossBrianOneal12/31/199129BM705 Maple StreetAikenSCBREACH/ Breach of trust with fraudulent12/17/20182018A0220101003
12/11/2018MooreRianaLesae06/29/200021WF5014 Clearbrick RdEffinghamSCSHOPLIFTING, VALUE $2,000 OR LESS03/21/20182018B0220100671
11/26/2018OnealMariaLavern04/25/198536BF151 R J Johnson RdMartinSCProviding False Info to PSO CITY ORDINAN06/21/20182018B0220100629
11/21/2018HarrisChristopher11/14/199030BM149 Lickcreek CtLeesvilleSCDUS 3rd or Sub.03/01/20182018B0220100620
11/20/2018PatrickOrlandaKendrael09/14/198041BM112 Williams StRidge SpringSCOperating/Allow Operation Uninsured MV08/18/20182018B0220100607
11/20/2018AlvarezOrtyevaC09/18/198239BM1916 Krather DriveAugustaGASHOPLIFTING, VALUE $2,000 OR LESS A03/16/20162018B0220100611
11/15/2018WilesJohnnySteven02/27/196358WM722 Rollingwood Rd WestAikenSCSHOPLIFTING, VALUE $2,000 OR LESS05/20/20182018B0220100599
11/08/2018LedbetterChristinaMarie04/24/197447WF603 Firewood LaneWarrenvilleSCSHOPLIFTING, VALUE $2,000 OR LESS05/12/20182018B0220100578
11/07/2018ReedAngelenaShameca09/14/197645BF1200 W Martintown Rd Apt 603North AugustaSCSimple Possession Marijuana MUST APPEAR10/26/20152018B0220100575
11/07/2018ReedAngelenaShameca09/14/197645BF1200 W Martintown Rd Apt 603North AugustaSCSHOPLIFTING, VALUE $2,000 OR LESS A10/13/20152018B0220100574
11/07/2018BrownLatashaShandella07/02/197744BF201 Reid DrAikenSCBREACH/ Breach of trust with fraudulent10/05/20182018A0220100859
10/31/2018RichardsonCharlesE09/09/194873BM2143 Huron Dr.AikenSCDUS / Driving under suspension, license04/14/20182018B0220100564
10/31/2018RichardsonCharlesE09/09/194873BM2143 Huron Dr.AikenSCDUS / Driving under suspension, license04/14/20182018B0220100563
10/30/2018ParkJamesMatthew09/26/198833WM115 Derry LnBarnwellSCSHOPLIFTING, VALUE $2,000 OR LESS07/24/20182018B0220100559
10/24/2018KeiferDianeAilsa03/24/196259WF130 Colley StAikenSCSHOPLIFTING, VALUE $2,000 OR LESS05/03/20182018B0220100548
10/24/2018KeiferDianeAilsa03/24/196259WF130 Colley StAikenSCSHOPLIFTING 1st11/25/20172018B0220100547
10/22/2018FrazierKendallDemetrius08/05/199427BM5206 Trotters RunAikenSCForgery > $10,00009/10/20182018A0220100823
10/15/2018DaughertyJohnAllen10/03/196061WM626 Cooks Bridge RdAikenSCOperating/Allow Operation Uninsured MV06/29/20182018B0220100527
10/15/2018DaughertyJohnAllen10/03/196061WM626 Cooks Bridge RdAikenSCIMPROPER VEHICAL LICENSE06/29/20182018B0220100528
10/15/2018DaughertyJohnAllen10/03/196061WM626 Cooks Bridge RdAikenSCDUS 1st /Driving under suspension, lice06/29/20182018B0220100526
10/05/2018RhodesJeromeDouglas08/06/197447BM517 Albeville AveAikenSCASSAULT/Assault & Battery 3rd degree10/01/20182018A0220100781
10/03/2018WhiteAhshiaElyese01/10/198932BF1039 Carriage Dr. Apt BAikenSCDisorderly / Public disorderly conduct06/28/20182018B0220100504
10/01/2018TillerDarrenThurman06/14/197051WM909 Robinhood CirAikenSCSHOPLIFTING, VALUE $2,000 OR LESS06/07/20182018B0220100493
09/27/2018NixBrandan03/05/198437BM204 Woodridge DrSpartanburgSCDUS/ DUS 3rd or sub offense07/14/20182018B0220100485
09/17/2018RiceSandraKay09/19/197051WF229 Sycamore StreetWarrenvilleSCFORGERY < $10,00008/06/20182018A0220100726
09/17/2018RiceSandraKay09/19/197051WF229 Sycamore StreetWarrenvilleSCFINANCIAL IDENTITY FRAUD08/06/20182018A0220100727
09/17/2018BurtonTomazLedeivence10/14/199724BM7102 Glen Arbor CourtAikenSCLarceny / Petit or Simple Larceny - $2,009/17/20182018A0220100728
09/01/2018BletcherLesaAnn02/03/196655BF700 Camellia St N EAikenSCLarceny / Petit or Simple Larceny - $2,009/01/20182018A0220100697
08/30/2018RhinehartAliciaSamatha03/23/197051WF108 Juanita DrAikenSCDUS 1st /Driving under suspension, lice06/02/20182018B0220100426
08/28/2018ButlerNicholasJerome12/29/197941BM1204 Lake Greenwood DrNORTH AUGUSTASCREPORT/Provide False Information to Law02/08/20182018B0220100415
08/28/2018ButlerNicholasJerome12/29/197941BM1204 Lake Greenwood DrNORTH AUGUSTASCALCOHOL/Open Container Beer02/05/20182018B0220100413
08/28/2018GuzmanAmberGail08/08/198041WF616 TimberlaneAikenSCDUI 1st - ( UNABLE)04/04/20182018B0220100416
08/28/2018GuzmanAmberGail08/08/198041WF616 TimberlaneAikenSCCHILD/child endangerment, commit certain04/04/20182018B0220100417
08/19/2018YoumansStephenDexter01/03/196457WM236 Paige Point Rd.SeabrookSCFail to Comply With Order of PSO07/12/20182018A0220100662
08/14/2018CroftStaceyBroen10/04/199130BF1443 Redd StAikenSCALCOHOL/Open Container Beer04/27/20182018B0220100386
08/14/2018CroftStaceyBroen10/04/199130BF1443 Redd StAikenSCDRUGS/Simple Possession Marijuana04/27/20182018B0220100385
08/14/2018KennerSophronia08/24/196754BF118 Canay LaneAikenSCDUS 1st06/11/20182018B0220100390
08/02/2018PontooEdie04/10/198734BF405 James Shull Rd.SalleySCDUS 1st /Driving under suspension, lice03/03/20182018B0220100362
07/30/2018FordTabitha07/05/198932BF71 Rose StBarnwellSCDOC11/07/20172018B0220100345
07/30/2018FordTabitha07/05/198932BF71 Rose StBarnwellSCAssault & Battery 3rd11/07/20172018B0220100344
07/25/2018BarnesAntroinateDarice07/21/197942BF238 Stone DrAikenSCProviding False Info to PSO CITY ORDINAN07/22/20182018A0220100600
07/25/2018BarnesAntroinateDarice07/21/197942BF238 Stone DrAikenSCTraffic / Operating vehicle on highway w07/22/20182018A0220100602
07/25/2018BarnesAntroinateDarice07/21/197942BF238 Stone DrAikenSCDUS 2nd,/Driving under suspension, licen07/22/20182018A0220100601
07/25/2018WilliamsCassiusMohammad07/21/199823BM526 Abbeville Ave. NwAikenSCTRESPASSING/Entering premises after warn07/25/20182018A0220100608
07/24/2018HamptonJessicaLasha01/16/198536BF4678 Columbia HwyRidge SpringSCSIMPLE LARCENY ($2,000 OR LESS)12/10/20162017A0220100042
07/15/2018JacksonCharlesEdward01/23/195764BM368 Toole StAikenSCLarceny / Petit or Simple Larceny - $2,006/07/20182018A0220100583
07/14/2018CreechStormie07/26/197645WF270 Cherry StBarnwellSCASSAULT/Assault & Battery 3rd degree07/14/20182018A0220100575
07/14/2018MooreDerekChester Damian09/30/198140BM43 Pleasant Lane Rd.EdgefieldSCBREACH/ Breach of trust with fraudulent06/17/20182018A0220100582
07/14/2018CreechStormie07/26/197645WF270 Cherry StBarnwellSCASSAULT/Assault & Battery 3rd degree07/14/20182018A0220100576
07/11/2018WilliamsCassiusMohammad07/21/199823BM526 Abbeville Ave. NwAikenSCTRESPASSING/Entering premises after warn07/11/20182018A0220100566
06/28/2018DanielsOllie06/23/195665BM424 Fairfield StAikenSCDUI 1st - No Breath Alcohol Test08/29/20172018B0220100312
06/25/2018GunterVickyFox09/30/195764WF2831 Old Camp LongAikenSCChildren / Legal custodian, unlawful neg12/29/20172017A0220101174
06/23/2018ThomasDemariusAntwoin05/23/199031BM7000 Canvasback Circle Apt.7102AikenSCFail to Comply With Order of PSO06/23/20182018A0220100510
06/23/2018ThomasDemariusAntwoin05/23/199031BM7000 Canvasback Circle Apt. 7102AikenSCDUS 2nd,/Driving under suspension, licen06/23/20182018A0220100511
06/12/2018ButlerLurethaMinor11/17/196951BF45 Pine StAikenSCDUS 1st01/30/20182018B0220100287
06/12/2018YoungWillieV04/19/196754BM156 Pickens StreetDenmarkSCDRUGS/Simple Possession Marijuana02/03/20182018B0220100291
06/12/2018ButlerLurethaMinor11/17/196951BF45 Pine StAikenSCOperating/Allow Operation Uninsured MV01/30/20182018B0220100288
06/12/2018ButlerLurethaMinor11/17/196951BF45 Pine StAikenSCFailure to Surrender Suspended Tag01/30/20182018B0220100289
05/30/2018CunninghamCoy08/08/196457BM12481 Westhampton CirWellingtonFLDRUGS/POSSESSION OF CRACK COCAINE 1st Of11/06/20172018A0220100444
05/29/2018PinkneyLatoria01/10/198734BF1734 Van Heise St Apt EColumbiaSCDomestic / Domestic Violence, 2nd degree05/29/20182018A0220100434
05/25/2018LasterDelmerGlenn09/02/195467WM135 Pinnacle DriveJohnson CityTNBREACH / Breach of trust with fraudulent11/29/20172018A0220100423
05/21/2018HoustonKiundraShanise06/30/199724BF1530 Harden St.ColumbiaSCSHOPLIFTING, VALUE $2,000 OR LESS06/20/20172018B0220100267
05/01/2018KneeceDustin05/03/199427WM151 Ginger LnAikenSCDisorderly / Public disorderly conduct02/23/20182018B0220100211
04/27/2018LewisVirginiaF10/29/197050WF342 Dragstrip RdAikenSCBreach / Breach of trust with fraudulent04/07/20182018A0220100326
04/21/2018LoxtonDavid04/25/199130B1064 Croft AveAikenSCASSAULT/Assault & Battery 3rd degree04/16/20182018A0220100315
04/17/2018SimpsonJonathanGlenn08/26/196160WM1484 Reynolds RdBarnwellSCBurglary / Burglary (After June 20, 198504/17/20182018A0220100304
04/17/2018SimpsonJonathanGlenn08/26/196160WM1484 Reynolds RdBarnwellSCLarceny / Grand Larceny, value more than04/17/20182018A0220100305
03/29/2018PooleJeremySean03/07/199427BM35 Vanderbilt DrAikenSCDUS 2nd, not susp for DUI10/02/20162018B0220100151
03/20/2018YoumansDe'andreaDesi'ee01/26/199229BF340 Kershaw Street NeAikenSCMalicious injury to real property $200003/19/20182018A0220100228
03/12/2018LasterDelmerGlenn09/02/195467WM135 Pinnacle DriveJohnson CityTNBREACH/ Breach of trust with fraudulent01/30/20182018A0220100210
03/08/2018JamesRobertAntonio07/06/196160BM5043 Perry LnSalleySCDisorderly / Public disorderly conduct01/17/20182018B0220100135
03/07/2018WareMichael05/14/197645BM305 Sycamore DrNorth AugustaSCFINANCIAL TRANSACTION CARD FRAUD<$500 in02/23/20182018A0220100197
02/23/2018DelaneyCraigAllen07/28/198734B3442 Toms DrAugustaGABREACH / Breach of trust with fraudulent02/16/20182018A0220100172
02/22/2018CurryFabianDelon02/26/199031BM9 Bettis Academy ExtTrentonSCBREACH/obtain signature or prop under fa02/22/20182018A0220100166
02/19/2018SettlesFrederick09/26/198437BM1330 Aldrich StAikenSCDUS 1st11/07/20172018B0220100118
02/13/2018PettusJoshuaDevon12/30/199228BM796 Henry RdNeesesSCDrugs / Distribution of Crack Cocaine02/13/20182018A0220100138
02/13/2018PettusJoshuaDevon12/30/199228BM796 Henry RdNeesesSCDRUGS/DISTRIBUTE,SELL,MANUF,OR PWID CONT02/13/20182018A0220100139
02/13/2018PettusJoshuaDevon12/30/199228BM796 Henry RdNeesesSCDistribution Crack Cocaine02/13/20182018A0220100132
02/13/2018PettusJoshuaDevon12/30/199228BM796 Henry RdNeesesSCDRUGS/DISTRIBUTE,SELL,MANUF,OR PWID CONT02/13/20182018A0220100137
02/13/2018PettusJoshuaDevon12/30/199228BM796 Henry RdNeesesSCDrugs / Distribution of Crack within pro02/13/20182018A0220100133
02/13/2018PettusJoshuaDevon12/30/199228BM796 Henry RdNeesesSCDrugs / Administer, distribute, etc. Sch02/13/20182018A0220100136
02/12/2018LynchLashonda07/27/198833BF2812 Joy RdAugustaGASHOPLIFTING 1st10/15/20172018B0220100099
02/11/2018AbneyShantelLadebriella01/10/198932BF952 Springfield Church RdTrentonSCMalicious injury to real property $200002/11/20182018A0220100110
02/11/2018AbneyShantelLadebriella01/10/198932BF288 Shiloh Heights RoadAikenSCASSAULT/Assault & Battery 3rd degree02/11/20182018A0220100112
02/01/2018BaconTamishaJkuanita08/10/198833BF423 Ridge AvAikenSCFalse Information to Police11/28/20172018B0220100062
01/19/2018TurnerDanielLee08/07/198932WM1271 Shaws Fork RdAikenSCFORGERY < $10,00009/03/20172017A0220100969
01/04/2018CouncilLamontezDeshaun02/03/199031BM226 Jehossee DrAikenSCTRESPASSING after notice10/13/20172018B0220100012
12/27/2017HatcherShondaVanessa01/30/197348WF127 Justic St.WarrenvilleSCLARCENY/SIMPLE LARCENY ($2,000 OR LESS)12/17/20172017A0220101166
12/10/2017RobinsonTakeiaShatori04/29/199328BF1602 Stayman PalceAugustaGASHOPLIFTING, VALUE $2,000 OR LESS12/10/20172017A0220101113
12/02/2017CoffmanMatthewDylan06/25/199526WMDRUGS/Possession 0f Less than One Gram M08/08/20172017A0220101096
11/29/2017DrinksSamuelDiontavious04/28/199427BM1593 Floyd StreetAugustaGAWeapons/UNLAWFUL CARRYING OF PISTOL10/08/20172017A0220101072
11/29/2017DrinksSamuelDiontavious04/28/199427BM1593 Floyd StreetAugustaGATRAFFIC/Leave Scene Property Damage-Atte10/08/20172017A0220101074
11/29/2017DrinksSamuelDiontavious04/28/199427BM1593 Floyd StreetAugustaGAWEAPONS/Sale, delivery of pistol to,and10/08/20172017A0220101073
11/16/2017KeyDaryl10/10/198833BM318 Greenville StAikenSCDRUGS/Simple Possession Marijuana 28g1st10/23/20162017B0220100459
11/16/2017TuckerWalterLee04/19/198140BM1750 Essie McIntyre Blvd Apt Y198AugustaGACONTEMPT/FAILURE TO APPEAR09/29/20172017B0220100543
11/16/2017BishopBetsy01/06/197348WF128 Tulip DrClearwaterSCCONTEMPT/FAILURE TO APPEAR08/19/20172017B0220100540
10/08/2017TurnerDanielLee08/07/198932WM1271 Shaws Fork RdAikenSCFORGERY < $10,00009/03/20172017A0220100970
09/02/2017PattersonAnitaAndrealle01/27/197150BF400 Valley AveNew Ellenton, Sc 29809ASSAULT/Assault & Battery 3rd degree09/02/20172017A0220100859
08/22/2017PriceBrandyLatrice03/30/198041BF1407 Edgefield Hwy.AikenSCFORGERY < $10,00007/22/20172017A0220100821
08/22/2017PriceBrandyLatrice03/30/198041BF1407 Edgefield Hwy.AikenSCFORGERY < $10,00007/25/20172017A0220100822
08/22/2017PriceBrandyLatrice03/30/198041BF1407 Edgefield Hwy.AikenSCFORGERY < $10,00007/25/20172017A0220100825
08/17/2017NordahlBlaneDavid04/19/196259WM7347 Lawn Tennis LnJacksonvilleFLBURGLARY/burglary (post 6/20/85) 1st deg11/20/20112017A0220100803
08/17/2017NordahlBlaneDavid04/19/196259WM7347 Lawn Tennis LnJacksonvilleFLLarceny/GRAND LARCENY $10,000 OR MORE11/20/20112017A0220100804
08/09/2017MorganSaralynn08/25/198932WF1072 East Cumorah DriveGenolaUTFILING FALSE POLICE REPORT-FELONY -CSC02/15/20172017A0220100757
08/06/2017RobinsonJohnnie11/10/199723BM21 Converse Dr.AikenSCSHOPLIFTING, VALUE $2,000 OR LESS08/05/20172017A0220100749
07/14/2017HightowerAubrey03/11/199724WF611 Foreman Dr.New EllentonSCBREACH/breach of trust with fraudulent i07/08/20172017A0220100690
07/03/2017RobertsLawanda07/31/197645BF188 Mt. Cavalry Church RoadUlmerSCUSE OF VEHICLE WITHOUT OWNERS CONSENT06/16/20172017A0220100669
06/25/2017RoweEricJovon04/26/199130BM1018 Keys Pond RdRidge SpringSCBREACH/breach of trust with fraudulent i05/19/20172017A0220100648
06/22/2017RiversMarion06/26/197744BM616 Cowpath LnMonks CornerSCDOMESTIC/Domestic Violence 2nd Degree06/21/20172017A0220100639
06/08/2017PadgettChristopherJames05/16/198536WM133 Cherry StBeech IslandSCMinor/Contributing to the delinquency of06/05/20172017A0220100609
06/03/2017TurnerJohnathanLamar10/16/197546BM2220 Burton Ferry HwySylvaniaGAASSAULT/Assault & Battery 2nd degree06/03/20172017A0220100596
06/01/2017BrownTamera09/27/198536BF342 Cherokee StAikenSCLARCENY/SIMPLE LARCENY ($2,000 OR LESS)06/01/20172017A0220100588
06/01/2017BrownTamera09/27/198536BF342 Cherokee StAikenSCLARCENY/SIMPLE LARCENY ($2,000 OR LESS)06/01/20172017A0220100589
05/23/2017WoodworthJoshuaMitchell06/30/199031WM950 Brooks Ave Unit CAikenSCVIOLATION ORDER OF PROTECTION/DOMESTIC M05/23/20172017A0220100540
04/27/2017HubbardChristopherLowell03/20/197051WM1218 Two Notch Road S EAikenSCMALICIOUS INJURY PERSONAL PROPERTY <$20005/04/20152015A0210400101
03/21/2017RandolphAshtonBlake05/13/199526BM2015 Sycamore StreetNew EllentonSCUNLAWFUL CARRYING OF PISTOL08/06/20162017A0220100300
03/21/2017RandolphAshtonBlake05/13/199526BM2015 Sycamore StreetNew EllentonSCFILING FALSE POLICE REPORT-FELONY08/06/20162017A0220100299
03/21/2017RandolphAshtonBlake05/13/199526BM2015 Sycamore StreetNew EllentonSCDischarging a Firearm in City Limits08/06/20162017A0220100301
03/20/2017DuboseTariTyreek06/21/197447BM112 Hampton Avenue NwAikenSCDOMESTIC/Domestic Violence 2nd Degree03/03/20172017A0220100243
03/16/2017DeloachKevinMelchisedec04/27/199427BM201 E Telfair St Apt A4AugustaGAFORGERY < $10,00001/13/20172017A0220100276
02/13/2017KnightRobertEarnest04/18/197942BM561 Union Church LnAIKENSCWeapons / Possession of Firearm or Ammun02/09/20172017A0220100197
02/13/2017KnightRobertEarnest04/18/197942BM561 Union Church LnAIKENSCASSAULT/Assault & Battery of a hight & a02/09/20172017A0220100198
02/13/2017KnightRobertEarnest04/18/197942BM561 Union Church LnAIKENSCPOSS FIREARM DURING COMMISSION OF A02/09/20172017A0220100199
02/13/2017KnightRobertEarnest04/18/197942BM561 Union Church LnAIKENSCMURDER/attempted murder02/09/20172017A0220100204
02/13/2017KnightRobertEarnest04/18/197942BM561 Union Church LnAIKENSCMURDER/attempted murder02/09/20172017A0220100195
02/13/2017KnightRobertEarnest04/18/197942BM561 Union Church LnAIKENSCROBBERY/attempted armed or allegedly arm02/09/20172017A0220100196
02/03/2017HendersonAdam08/11/197645WM703 Hammond DriveNorth AugustaSCASSAULT/Assault & Battery 2nd degree01/27/20172017A0220100149
01/23/2017ChavisTina04/21/196952WF202 Retro DrAikenSCTHEFT OF CONTROLLED SUBSTSANCE01/13/20172017A0220100096
01/17/2017BrodieJonathanArthur02/23/198833BM208 Gillburg Estates CourtHendersonNCGRAND LARCENY $10,000 OR MORE10/13/20162017A0220100052
01/17/2017HaywoodElijahOneal11/28/198931BM79 Evans Street, Lot 10HendersonNCGRAND LARCENY $10,000 OR MORE10/13/20162017A0220100053
12/31/2016SatcherTiannaShay12/08/199129BF106 Honeysuckle Court Apt 6RadcliffKYSIMPLE LARCENY ($2,000 OR LESS)12/12/20162016A0220101283
12/31/2016AldermanBrandyDawn03/12/197645WF1230 Powell Pond RoadAikenSCFINANCIAL TRANSACTION CARD FRAUD<$500 in12/12/20162016A0220101284
12/31/2016AldermanBrandyDawn03/12/197645WF1230 Powell Pond RoadAikenSCSIMPLE LARCENY ($2,000 OR LESS)12/12/20162016A0220101285
12/31/2016SatcherTiannaShay12/08/199129BF106 Honeysuckle Court Apt 6RadcliffKYFINANCIAL TRANSACTION CARD FRAUD<$500 in12/12/20162016A0220101282
12/27/2016SatcherTiannaShay12/08/199129BF106 Honeysuckle Court Apt 6RadcliffKYFORGERY < $10,00012/12/20162016A0220101265
10/26/2016HowardDalvinJamar12/13/199228BM7 Dove StJohnstonSCFORGERY < $10,00009/28/20162016A0220101040
10/26/2016HowardDalvinJamar12/13/199228BM7 Dove StJohnstonSCFORGERY < $10,00009/28/20162016A0220101041
10/24/2016GaffneyTyshawnClyde06/22/198239BM385 Kelly St.WillistonSCMALICIOUS INJURY PERSONAL PROPERTY <$20009/30/20162016A0220101030
10/14/2016CampbellKennethWayne06/29/195566BM2830 GLENN HILLSAUGUSTAGASHOPLIFTING, VALUE $2,000 OR LESS12/18/20132016A0220101006
10/14/2016AnthonyCharles03/23/196160BM2210 Bungalow RdAugustaGAPOSSESSION OF STOLEN GOODS >$1000<$500012/18/20132016A0220101007
10/07/2016LatimoreJanice03/30/196556BF2820 Glenn Hills CircleAugustaGAPOSSESSION OF STOLEN GOODS >$1000<$500001/07/20142016A0220100978
10/06/2016AnthonyCharles03/23/196160BM2210 Bungalow RdAugustaGASHOPLIFTING, VALUE $2,000 OR LESS01/07/20142016A0220100981
10/06/2016CampbellKennethWayne06/29/195566BM2830 GLENN HILLSAUGUSTAGASHOPLIFTING, VALUE $2,000 OR LESS01/07/20142016A0220100982
09/11/2016EnglishReginaldMichael09/28/198536BM1101 Cornish StAikenSCDOMESTIC/Domestic Violence 2nd Degree09/11/20162016A0220100893
09/07/2016AlexanderDewightMarkez04/05/199427BM404 1/2 N Lee StreetFitzgeraldGASHOPLIFTING MORE THAN $2,000 BUT LESS TH08/05/20162016A0220100879
08/19/2016SingletonRickeyAngelo03/31/195467BM3610 Rolling Meadows DriveAugustaGASHOPLIFTING/3rd> VALUE $2000 OR LESS (EN04/30/20162016A0220100823
07/01/2016WilliamsRichardLeonard02/18/195467BM802-D Brandt CourtAikenSCDOMESTIC/Domestic Violence 2nd Degree07/01/20162016A0220100642
06/27/2016SmithTerryWayne06/20/197942WM275 Seleta CircleLexingtonSCFORGERY < $10,00006/27/20162016A0220100632
06/14/2016FrettsRobertGlenn12/05/196258WM141 Wrights Mill RoadAIKENSCDUS 1st04/13/2009I091475
05/26/2016YonDanielPatrick11/08/198436WM61 Quail Run RdWagenerSCProviding False Info to PSO CITY ORDINAN05/22/20162016A0220100525
05/26/2016YonDanielPatrick11/08/198436WM61 Quail Run RdWagenerSCDUS 2nd ADVISE TO APPEAR05/22/20162016A0220100526
05/26/2016YonDanielPatrick11/08/198436WM61 Quail Run RdWagenerSCDisregarding Traffic Sign05/22/20162016A0220100527
05/17/2016BoydKimberlyFrances10/08/196457WF731 Augusta RoadWarrenvilleSCFORGERY < $10,00005/09/20162016A0220100500
05/17/2016BoydKimberlyFrances10/08/196457WF731 Augusta RoadWarrenvilleSCFORGERY < $10,00005/09/20162016A0220100499
04/21/2016FordLinden05/25/196160WF405 Gilbert StAikenSCBreach / Breach of trust with fraudulent04/21/20162016A0220100430
03/28/2016JohnsonSabrinaL01/01/1753268F401 East Hickory AveNEW ELLENTONSCBREACH OF TRUST <$1000 OR LESS09/06/2004I087014
03/28/2016HowellTamrikaCherylle01/01/1753268BF2310 Springhouse Lane Apt. DAugustaGASIMPLE ASSAULT & BATTERY05/24/2009I091614
02/29/2016MooreNatalieLatrice02/22/198536BF5102 Glen Arbor Ct NwAikenSCCHILDREN/cruelty to children (torture, d11/21/20152016A0220100180
02/25/2016MerrittDushawnJamar01/27/198140BM10 Roosevelt CtAikenSCTRESPASSING/Entering premises after warn02/25/20162016A0220100158
02/24/2016HallReginaGail01/01/1753268WF202 George AvenueNew EllentonSCBREACH/breach of trust with fraudulent i02/21/20162016A0220100156
02/22/2016MerrittDushawnJamar01/27/198140BM10 Roosevelt CtAikenSCTRESPASSING/Entering premises after warn02/22/20162016A0220100151
02/14/2016WilliamsRobertKenneth09/03/198833BM5162 Hwy 23GarfieldGADOMESTIC/Domestic Violence 1st Degree02/14/20162016A0220100141
02/14/2016WilliamsRobertKenneth09/03/198833BM5162 Hwy 23GarfieldGACHILDREN/legal custodian unlawful neglec02/14/20162016A0220100142
01/28/2016MerrittDushawnJamar01/27/198140BM10 Roosevelt CtAikenSCTRESPASSING/Entering premises after warn01/22/20162016A0220100077
01/28/2016MerrittDushawnJamar01/27/198140BM10 Roosevelt CtAikenSCSHOPLIFTING/3rd> VALUE $2000 OR LESS (EN01/22/20162016A0220100078
01/26/2016MerrittDushawnJamar01/27/198140BM10 Roosevelt CtAikenSCTRESPASSING/Entering premises after warn01/22/20162016A0220100070
01/21/2016MerrittDushawnJamar01/27/198140BM10 Roosevelt CtAikenSCSHOPLIFTING/3rd> VALUE $2000 OR LESS (EN01/21/20162016A0220100064
01/21/2016RodriquezRicardo05/04/196853HM3866 Mike Padgett HwyAugustaGASIMPLE LARCENY ($2,000 OR LESS) ADVISE T01/14/20162016A0220100066
01/21/2016MerrittDushawnJamar01/27/198140BM10 Roosevelt CtAikenSCTRESPASSING/Entering premises after warn12/29/20152016A0220100063
01/14/2016HarleyMckinley06/26/193289BM202 Solom Blatt StreetBlackvilleSCVIOLATION ORDER OF PROTECTION/DOMESTIC M01/13/20162016A0220100040
01/12/2016MerrittDushawnJamar01/27/198140BM10 Roosevelt CtAikenSCTRESPASSING/Entering premises after warn01/11/20162016A0220100034
01/12/2016MerrittDushawnJamar01/27/198140BM10 Roosevelt CtAikenSCSHOPLIFTING/3rd> VALUE $2000 OR LESS (EN01/11/20162016A0220100035
12/28/2015RaifordStanley12/16/196456BM104 CYNTHIA DRJohnstonSCASSAULT/Assault & Battery 1st degree MUS12/24/20152015A0220101262
12/23/2015MerrittDushawnJamar01/27/198140BM10 Roosevelt CtAikenSCSHOPLIFTING/3rd> VALUE $2000 OR LESS (EN12/23/20152015A0220101250
12/23/2015MerrittDushawnJamar01/27/198140BM10 Roosevelt CtAikenSCSHOPLIFTING, VALUE $2,000 OR LESS A12/23/20152015A0220101252
12/23/2015MerrittDushawnJamar01/27/198140BM10 Roosevelt CtAikenSCTRESPASSING/Entering premises after warn12/23/20152015A0220101251
12/23/2015MerrittDushawnJamar01/27/198140BM10 Roosevelt CtAikenSCTRESPASSING/Entering premises after warn12/23/20152015A0220101253
12/22/2015WhatleyKelliPage06/08/198338WF511 S. Walker StreetColumbiaSCOBTAIN PRESCRIPTION DRUGS BY FRAUD12/02/20152015A0220101242
12/09/2015MathisCrystal04/20/199031WF230 Jones Ray CirWillistonSCCHILDREN/legal custodian unlawful neglec12/09/20152015A0220101193
12/09/2015CoutrierPetrea04/19/199328B121 Cottonwood Ciecle Apt.1WillistonSCBREACH/breach of trust with fraudulent i11/07/20152015A0220101195
12/06/2015MerrittDushawnJamar01/27/198140BM10 Roosevelt CtAikenSCSHOPLIFTING/3rd> VALUE $2000 OR LESS (EN11/15/20152015A0220101186
12/06/2015MerrittDushawnJamar01/27/198140BM10 Roosevelt CtAikenSCSHOPLIFTING/3rd> VALUE $2000 OR LESS (EN11/29/20152015A0220101187
12/06/2015MerrittDushawnJamar01/27/198140BM10 Roosevelt CtAikenSCSHOPLIFTING/3rd> VALUE $2000 OR LESS (EN11/30/20152015A0220101188
11/10/2015QuarlesWilliamHartwell09/07/194675WM561 Linler LaneAikenSCASSAULT/Assault & Battery 2nd degree MUS11/04/20152015A0220101134
11/03/2015GreeneAdonisMarkez10/31/199624BM2152 Melton Ave.MaconGAASSAULT/Assault & Battery 3rd degree MUS10/24/20152015A0220101105
11/02/2015McMillianFernishaNantill04/17/199031BF3424 Seneca AveAikenSCSIMPLE LARCENY ($2,000 OR LESS) MUST APP10/03/20152015A0220101104
10/29/2015MerrittDushawnJamar01/27/198140BM10 Roosevelt CtAikenSCSHOPLIFTING/3rd> VALUE $2000 OR LESS (EN10/13/20152015A0220101088
10/29/2015MerrittDushawnJamar01/27/198140BM10 Roosevelt CtAikenSCSHOPLIFTING/3rd> VALUE $2000 OR LESS (EN10/14/20152015A0220101089
10/29/2015MerrittDushawnJamar01/27/198140BM10 Roosevelt CtAikenSCSHOPLIFTING/3rd> VALUE $2000 OR LESS (EN10/27/20152015A0220101090
10/27/2015MerrittDushawnJamar01/27/198140BM10 Roosevelt CtAikenSCSHOPLIFTING 3rd or Subsequent10/15/20152015A0220101073
10/23/2015MerrittDushawnJamar01/27/198140BM10 Roosevelt CtAikenSCSHOPLIFTING 3rd or Subsequent10/22/20152015A0220101074
10/22/2015QuillerRoslynTeodalinda12/09/197347BF121 Beckham RoadWarrenvillerSCBREACH/breach of trust with fraudulent i10/17/20152015A0220101063
10/16/2015GantShekeriaChaquana06/26/199031BF2016 Roosevelt DriveAugustaGASimple Possession Marijuana MUST APPEAR10/16/20152015A0220101052
10/13/2015ReedDavidLynn02/21/197942WM110 Vine StAikenSCFINANCIAL TRANSACTION CARD FRAUD<$50009/22/20152015A0220101044
10/13/2015ReedDavidLynn02/21/197942WM110 Vine StAikenSCFINANCIAL TRANSACTION CARD FRAUD<$50009/22/20152015A0220101045
10/09/2015MerrittDushawnJamar01/27/198140BM10 Roosevelt CtAikenSCSHOPLIFTING/3rd> VALUE $2000 OR LESS (EN10/09/20152015A0220101027
09/23/2015Oliver JrDavidSteven06/17/198734WM1827 McDowell StreetAugustaGANo Driver's License (1st Offense) MUST A09/22/20152015A0220100972
09/23/2015Oliver JrDavidSteven06/17/198734WM1827 McDowell StreetAugustaGALEAVE SCENE OF ACCIDENT MINOR INJURY09/22/20152015A0220100971
09/23/2015Oliver JrDavidSteven06/17/198734WM1827 McDowell StreetAugustaGARECKLESS DRIVING09/22/20152015A0220100973
09/04/2015CooperJeanetteRae07/31/197645WF248 Talatha Church RoadAikenSCLeave Scene of Accident07/24/20152015A0220100911
09/02/2015KeyMorganSuzanne05/17/199130WF96 Sunhigh RdJohnstonSCFailure to Yield Right of Way08/14/20152015A0220100907
08/13/2015PittmanAaliyahNicole08/12/199229BF25 Nondron St.New EllentonSCBank fraud08/12/19922015A0220100856
07/02/2015MilesMichaelJames02/09/198140WM224 Archdale DrAikenSCLARCENY/Petit or Simple Larceny- $2,00006/26/20152015A0220100691
06/26/2015RobinsonYcedraRavohn06/24/199328BF4137 Allendale AveAikenSCMALICIOUS INJURY PERSONAL PROPERTY <$20006/22/20152015A0220100661
05/20/2015ColemanLaurie12/24/198436WF203 G Sunridge RoadAikenSCBREACH/breach of trust with fraudulent i05/20/20152015A0220100479
05/06/2015HubbardChristopherLowell03/20/197051WM1218 Two Notch Road S EAikenSCDOMESTIC/Criminal Domestic Violence05/04/20152015A0210400100
04/29/2015KnightRobertEarnest04/18/197942BM561 Union Church LnAIKENSCASSAULT/assault & battery 3rd degree04/28/20152015A0220100398
04/23/2015KingAllenDavid02/20/197249BM655 Potter House RoadJeffersonGAFORGERY < $10,00003/31/20152015A0220100372
03/27/2015BoydKeannaL04/27/199427BF1834 Stone Battery RdNewberrySCTRESPASSING/Entering premises after warn03/27/20152015A0220100267
03/22/2015CarrSusanAnn09/06/196061WF525 Peggy CircleWarrenvilleSCMALICIOUS INJURY PERSONAL PROPERTY <$20002/22/20152015A0220100245
03/20/2015WadeAnnieM02/27/195467BF8232 Be Nice CourtGranitevilleSCASSAULT/assault & battery 3rd degree03/20/20152015A0220100233
03/14/2015BoydKeannaL04/27/199427BF1834 Stone Battery RdNewberrySCTRESPASSING/Entering premises after warn03/14/20152015A0220100222
12/30/2014PrestonAliceMae07/12/196655BF1088 Reynolds PondAIKENSCCHILDREN/cruelty to children11/16/20142014A0220100964
12/09/2014BivensBryanLeigh05/08/199427WM164 Barnhill RoadLadsonSCFORGERY < $10,00010/24/20142014A0220100919
11/25/2014NguyenTien01/18/196754AM146 2nd Loop Rd. Apt 4FlorenceSCDOMESTIC/Criminal Domestic Violence11/25/20142014A0220100861
11/07/2014BensonRodriguez05/23/197744BM1826 Medlar StAugustaGADOMESTIC/Criminal Domestic Violence11/07/20142014A0220100830
11/05/2014BenedictDonald01/01/1753268WM3 Converse DriveAikenSCBREACH/breach of trust with fraudulent i07/12/20142014A0220100826
10/14/2014JacksonMariell04/14/196853BF735 Chime Bell Church Rd.AikenSCBREACH/breach of trust with fraudulent i09/07/20142014A0220100776
10/14/2014LongMoniqueShantrell09/17/199031BF1508 Kalmia Apts.GranitevilleSCSHOPLIFTING, VALUE $2,000 OR LESS09/07/20142014A0220100775
10/09/2014SinclairSherryMelissa06/22/197843WF115 Lakeview DrParksvilleSCTELEPHONE/Unlawful Communication after 710/08/20142014A0220100759
06/03/2014LafleurJosephR04/21/198140WM987 Nielson StAikenSCUnlawful Use of Telephone06/03/20142014A0220100401
05/25/2014GibbsAnnieRose12/13/197941WF4516 Shawnee DriveMartinezGASHOPLIFTING, VALUE $2,000 OR LESS05/25/20142014A0220100373
05/07/2014DanielsShanaKionne12/18/198634BF71 Jay St.BarnwellSCBREACH/breach of trust with fraudulent i04/18/20142014A0220100332
05/06/2014McClellanRobert11/27/197743WM3455 Romulus DriveDuluthGAGRAND LARCENY MORE THAN $2,000 BUT LESS05/02/20142014A0220100325
05/05/2014McClellanRobert11/27/197743WM3455 Romulus DriveDuluthGABURGLARY 2nd DEGREE05/02/20142014A0220100321
05/05/2014GilchristMartrealVandel04/24/198140BM4340 Broad River RdColumbiaSCOBTAIN PRESCRIPTION DRUGS BY FRAUD05/05/20142014A0220100322
04/24/2014BroxtonOrlando03/22/198437BM7 B Ridgecrest RoadAikenSCLARCENY/Petit or Simple Larceny- $2,00004/19/20142014A0220100299
04/22/2014GloverLesterLeroy09/04/198635BM161 Gregg StreetGranitevilleSCASSAULT/assault & battery 3rd degree04/22/20142014A0220100290
02/17/2014HicksRobertAllan04/22/197249WM46 Janet St.WillistonSCBREACH/breach of trust with fraudulent i02/17/20142014A0220100102
02/05/2014WyattMichaelDennis02/28/196457WM#4 Cardinal CircleAikenSCTRESPASSING/Entering premises after warn02/05/20142014A0220100067
11/13/2013GeterHenry11/18/195169BM5525 U.S. Hwy 21 North Main St.ColumbiaSCCONSPIRACY/CRIMINAL CONSPIRACY COMMON LA10/15/2010I093657
10/28/2013PattersonAnnette06/06/195863BF1316 Union AvenueFairfaxSCSHOPLIFTING, VALUE $2,000 OR LESS10/28/20132013A0220100956
10/28/2013MarshallLashondaElaine08/20/197051BF533 SaludaFairfaxSCSHOPLIFTING, VALUE $2,000 OR LESS10/28/20132013A0220100957
09/18/2013WhiteTony09/19/198536BM109 Fairway Ridge - Apt. DAikenSCDOMESTIC/Criminal Domestic Violence09/17/20132013A0220100841
08/29/2013JacksonTomeka01/07/197546BFBREACH/breach of trust with fraudulent i08/29/20132013A0220100772
08/18/2013MinorMaurice01/09/199130BM3208 Georgia PlaceAugustaGAFINANCIAL TRANSACTION CARD THEFT08/18/20132013A0220100747
08/10/2013BrownRobertLee10/25/199327BM1947 Kratha DrAugustaGAASSAULT/assault & battery 3rd degree08/05/20132013A0220100737
07/31/2013CouncilMauriceLamont08/29/199031BMUnknownAikenSCROBBERY/ WHILE ARMED W/DEADLY WEAPO07/23/20132013A0220100708
07/31/2013CouncilMauriceLamont08/29/199031BMUnknownAikenSCKIDNAPPING07/23/20132013A0220100711
07/31/2013CouncilMauriceLamont08/29/199031BMUnknownAikenSCROBBERY/ WHILE ARMED W/DEADLY WEAPO07/23/20132013A0220100709
07/31/2013CouncilMauriceLamont08/29/199031BMUnknownAikenSCKIDNAPPING07/23/20132013A0220100710
07/19/2013ReedKathyLekecia08/04/197744BF204 Cottonwood Dr.North AugustaSCMALICIOUS INJURY PERS.PROP07/05/2008I090772
06/30/2013WalkerMontrelJamar04/30/199328BM151 4th StBarnwellSCMALICIOUS INJURY PERSONAL PROPERTY <$20006/30/20132013A0220100635
06/18/2013LasseterMercedesLatoya05/31/199130B433 Sand Bar Ferry RoadAugustaGASHOPLIFTING MORE THAN $2,000 BUT LESS TH07/02/20122013A0220100161
06/04/2013Arceo-PoolJustino12/16/197941HM4 B Nancy LaneAikenSCNo Driver's License (1st Offense)12/25/2010I093053
04/16/2013CarlosTracy12/17/196852BM915 Bachman Dykes Rd.SwanseaSCOBTAIN SIGNATURE/ PROPERTY BY FALSE PRET12/21/20122013A0220100339
03/06/2013TaylorHenryR09/30/195467BM230 Emerald LaneBarnwelllSCASSAULT/assault & battery 3rd degree03/05/20132013A0220100222
02/18/2013JonesRobert05/25/198437BM160 Summit StClintonSCBREACH OF TRUST <$2,000 OR LESS12/02/2011I093945
02/16/2013LasseterMercedesLatoya05/31/199130B433 Sand Bar Ferry RoadAugustaGAProviding False Info to PSO07/02/20122013A0220100162
01/31/2013RollinsTarekDanglo07/20/197645BM1017 Oellerich St.AugustaGASIMPLE LARCENY ($2,000 OR LESS)01/31/20132013A0220100099
01/10/2013MathenyHaroldFonte06/13/199130BM151 Goodsprings RoadAikenSCCHILDREN/legal custodian unlawful neglec08/13/20122013A0220100022
01/02/2013KennedyMalcolm12/23/198733BM112 Walkers Pond RoadAikenSCDOMESTIC/criminal domestic violence01/02/20132013A0220100005
11/15/2012DukesGeorgeEdward08/19/196655BM415 Park AveJOHNSTONSCLARCENY/FAIL TO RETURN RENTED PROPERTY>$11/11/20122012A0220100566
11/06/2012WilliamsLacoyakeosha02/14/198338BF260 Litchfield St. Apt 327BarnwellSCCHILDREN/legal custodian unlawful neglec11/06/20122012A0220100536
10/05/2012JonesTamaraRenee10/03/198239BF2424 Amsterdam DriveAugustaGAFORGERY < $10,00009/29/20122012A0220100395
09/04/2012HartzogBrittanyLeshay09/13/198833BF306 Litchfield St Apt 386BarnwellSCSHOPLIFTING $2,000 OR LESS02/25/20122012A0220100292
08/23/2012LatifLatifahStarr02/16/199229BF45 Fairclift Dr.CovingtonGAFORGERY < $10,00008/13/20122012A0220100237
08/16/2012MintzChristopherLamont11/21/198337BM342 Aiken RdGranitevilleSCCRIMINAL DOMESTIC VIOLENCE05/24/20122012A0220100220
08/09/2012KowalskiCrystalLynn05/11/198239WF931 Doughtery RdAikenSCSHOPLIFTING $2,000 OR LESS05/16/20122012A0220100189
07/28/2012WittenPhyllisLashawn08/19/197744BF449 Monetta StreetAikenSCASSAULT AND BATTERY 3RD DEGREE07/27/20122012A0220100122
07/09/2012HammondAngela09/19/196853WF205 EVANS STREETMORGANTONNCOBTAIN PRESCRIPTION DRUGS BY FRAUD10/11/2002I-085287
04/16/2012HopeVincentLynn09/14/196160BM167 Land L LaneAIKENSCCRIMINAL DOMESTIC VIOLENCE12/23/2005I088427
02/07/2012YinglingLawrenceGlenn07/09/197150WM2867 Wells DriveAugustaGAASSAULT AND BATTERY 3RD DEGREE01/20/2012I093889
02/06/2012YinglingLawrenceGlenn07/09/197150WM2867 Wells DriveAugustaGAFAILURE TO COMPLY -CITY CODE01/20/2012I093890
01/23/2012SpannSylvia04/05/195764BF303 Locke Ln.AIKENSCTHEFT OF CABLE01/19/2012I093896
12/15/2011RiceWilliamA.09/07/198833WM2082 Bellford DriveAikenSCASSAULT AND BATTERY 3RD DEGREE12/11/2011I093820
10/27/2011HacklerThomasHarold06/28/196259WMLugoffSCBANKING/FEDERALLY CHARTERED OR INSURED F10/04/2011I093716
10/07/2011WardMiriam09/07/196952WF4414 Windsor Springs RoadHephzibahGAOBTAINING FOOD &LODGING BY FRAUD09/09/2011I093664
10/05/2011WardMiriam09/07/196952WF4414 Windsor Springs RoadHephzibahGABREACH OF TRUST <$2,000 OR LESS09/09/2011I093663
06/23/2011BlairAlonzo07/01/194972BM147 Fairfield St N EAikenSCSIMPLE LARCENY ($2,000 OR LESS)06/21/2011I093445
03/21/2011SimpsonDanya12/31/196654WF2752 Drowning Creek RdDaculaGAFINANCIAL IDENTITY FRAUD01/28/2011I093233
03/21/2011SimpsonDanya12/31/196654WF2752 Drowning Creek RdDaculaGAFINANCIAL TRANSACTION CARD FRAUD01/28/2011I093234
03/21/2011SimpsonDanya12/31/196654WF2752 Drowning Creek RdDaculaGAFINANCIAL TRANSACTION CARD FRAUD02/16/2011I093230
03/21/2011SimpsonDanya12/31/196654WF2752 Drowning Creek RdDaculaGAFINANCIAL TRANSACTION CARD FRAUD02/16/2011I093231
03/21/2011SimpsonDanya12/31/196654WF2752 Drowning Creek RdDaculaGAFINANCIAL TRANSACTION CARD FRAUD01/28/2011I093232
03/21/2011SimpsonDanya12/31/196654WF2752 Drowning Creek RdDaculaGACRIMINAL CONSPIRACY01/28/2011I093235
12/29/2010Arceo-PoolJustino12/16/197941HM4 B Nancy LaneAikenSCRECKLESS DRIVING12/29/2010I093052
11/15/2010McClureLeslie09/13/198536WF273 Pearl LnWillistonSCLOTTERY/INTENT TO DEFRAUD, COUNTERFEIT10/19/2010I092968
10/08/2010HodgesJimmyLee Evan03/14/198833WM808 New Holland Rd.AikenSCBREACH OF TRUST <$1000 OR LESS11/21/2008I091148
07/23/2010HooperThomasCecil03/24/195467WM1536 A HAMILTON AV,AIKENSCDRIVING UNDER SUSPENSION05/31/2000G338785
05/10/2010WilliamsRobertLee12/25/197644BM1332 DRUID PARK AVEAUGUSTASCNO DRIVERS LICENSE10/14/2001G871483
04/28/2010MurrayMarionIssac07/07/194774BM825 SPRUCE STREET #46AUGUSTAGASIMPLE LARCENY08/17/2000G580276
04/28/2010TaggartHenryL08/03/195764BM604 PARK AVAIKENBREACH OF TRUST11/02/1999G338052
04/27/2010CooperMickeyDelane07/27/196457WM355 A HILL AVEAIKENSCCRIMINAL DOMESTIC VIOLENCE05/30/2002H115703
04/22/2010BoswellMaryBrooke08/29/196952WF106 Concord Ave. 15 A1AndersonSCUNLAWFUL USE OF TELEPHONE04/22/2010I092522
03/12/2010CoalindoMauriciaPerez11/01/198238HM30 Converse DrAIKENSCLEAVE SCENE OF ACCIDENT MINOR INJURY04/18/2005I087645
01/05/2010GarryDonnie07/08/198140BM1489 University Parkway Apts.AIKENSCBANK FRAUD07/18/2009I092274
11/29/2009HeardJeremyThomas05/16/198437WM407 Sugarcreek Dr.GrovetownGAMALICIOUS INJURY PERS.PROP11/28/2009I092158
11/29/2009HeardJeremyThomas05/16/198437WM407 Sugarcreek Dr.GrovetownGASIMPLE LARCENY11/28/2009I092159
10/27/2009ReeseJonathanManuel02/14/197843WM4477 Wrightsboro RoadGrovetownGABREACH OF TRUST <$1000 OR LESS10/14/2009I092032
10/17/2009AnthonyTroy06/26/198239BMAugustaGASIMPLE ASSAULT & BATTERY10/16/2009I092006
10/17/2009AnthonyTroy06/26/198239BMAugustaGASIMPLE LARCENY10/16/2009I092007
09/24/2009CalahanTerryJoseph06/02/197645WM5245 River RoadWaynesboroGAShoplifting 1st08/28/2009I091957
07/31/2009DixonDebbieLee Sanders08/28/198140BF118 Reynolds StreetAugustaGAShoplifting more than First07/18/2009I091789
04/13/2009FrettsRobertGlenn12/05/196258WM141 Wrights Mill RoadAIKENSCRECKLESS DRIVING04/13/2009I091476
12/23/2008PierceCindyLynn07/30/198140WF1405 Cassels StreetJacksonSCOPERATING/ALLOW OPR. UNINSURED12/23/2008I091192
12/23/2008PierceCindyLynn07/30/198140WF1405 Cassels StreetJacksonSCProviding False Info to PSO12/22/2008I091193
07/31/2008RodgersRaymondJustin03/04/198041BM2720 Castletown DrHephzibahGAShoplifting 1st07/30/2008I090820
04/11/2008PetersonDouglasEdmund08/13/198437BM155 Moores DriveEdgefieldSCSIMPLE ASSAULT & BATTERY04/11/2008I090514
02/21/2008JonesCaprice01/11/197348BMHorry StreetAikenSCSIMPLE ASSAULT & BATTERY02/21/2008I090423
07/06/2007MorrinJohn06/01/197744WM3608 Richland AveAikenSCBREACH OF TRUST <$1000 OR LESS07/05/2007I089823
05/03/2007CorleyAnthony02/02/197843BM723 Washington Cr.Aiken,SCMALICIOUS INJURY PERS.PROP04/10/2007I089668
02/14/2007WilliamsCleophas02/27/196457BM200 Woodberry Rd Apt 200West ColumbiaSCBREACH OF TRUST >$1000 BUT LESS THAN $5001/16/2007I089487
01/19/2007RandolphMarc01/01/1753268WMKALMIA APARTMENTSGRANITEVILLESCOBTAIN GOODS & LODGE BY FRAUD03/19/2003I-085819
12/20/2006RobinsonGeorgeAlvin06/08/197744BM124 Sumter St NeAikenSCTRESPASSING AFTER NOTICE12/20/2006I089362
11/29/2006AikenDavidL06/23/198536BM227 Mitchellville RdHILTON HEAD ISLASCVIOLATION OF A RESTRAINING ORDER11/28/2006I089323
10/26/2006MerriweatherPhillip10/10/197348BM159 Courtney RdTrenton/Sc/29847CRIMINAL DOMESTIC VIOLENCE10/26/2006I089235
10/17/2006AikenDavidL06/23/198536BM227 Mitchellville RdHILTON HEAD ISLASCVIOLATION OF RESTRAINING ORDER10/16/2006I089207
01/12/2006JacksonMichaelJayron07/24/197645BM485 Goodsprings RdAIKENSCDefrauding Innkeeper12/10/2005I088466
12/23/2005HopeVincentLynn09/14/196160BM167 Land L LaneAIKENSCMALICIOUS INJURY TO REAL PROPERTY12/23/2005I088428
12/05/2005BandySandra06/27/195566WF1206 Pine StAIKENSCFAILURE TO STOP FOR BLUE LIGHT/SIREN12/01/2005I088377
04/20/2005CoalindoMauriciaPerez11/01/198238HM30 Converse DrAIKENSCNo Proof of Insurance04/18/2005I087646
04/20/2005CoalindoMauriciaPerez11/01/198238HM30 Converse DrAIKENSCFailure to Yield Right of Way04/20/2005I087644
04/20/2005CoalindoMauriciaPerez11/01/198238HM30 Converse DrAIKENSCNo Driver's License04/18/2005I087647
03/18/2005WheelerJason01/31/198437BM509 Barnwell Ave NeAIKENSCCRIMINAL DOMESTIC VIOLENCE03/18/2005I087552
12/29/2004JoinerMarjaDenya11/27/197743BF11 Lisa St.WILLISTONSCBREACH OF TRUST <$1000 OR LESS12/29/2004I087336
08/14/2004McgeeMarvinWilson03/31/198239WM111 The Heights 2nd AveSALUDASCMALICIOUS INJURY TO REAL PROPERTY <$1,0008/06/2004I086951
07/04/2004JohnsonRayLamont08/12/197249BM310 Lloyd StreetOrangeburgSCBREACH OF TRUST> $500007/02/2004I086768
05/04/2004MyersDennisReginald04/19/196061BM467 HWY 300BARWELLSCSHOPLIFTING/CONCEALMENT05/04/2004I086641
12/02/2003MelsonShamina08/06/197645BF910 CALLAHAN TERRACEAIKENSCOPERATE/ALLOW OPR. UNINSURED03/07/1999G004757
12/02/2003WorleyJohn07/15/197447WM1203 CHIMEBELL CHRUCH RDAIKENSCSIMPLE LARCENY05/25/1999G004708
12/02/2003HammondAngela09/19/196853WF205 EVANS STREETMORGANTONNCOBTAIN PRESCRIPTION DRUGS BY FRAUD10/19/2002I-085289
12/02/2003HaynesAndrewJ. Iii04/03/197645BM5213 BURTON STREETPHILADELPHIAPAOBTAIN GOODS OR LODGE BY FRAUD09/22/2003I-086202
12/02/2003PeekBertramAlexander09/29/197546BM2023 STEINER AVEAUGUSTAGABREACH OF TRUST11/18/2000G580469
12/02/2003HolmesAlbertWesley04/24/195170BM214 WHISPERING PINES TERRAIKENSCBREACH OF TRUST <$100008/15/2002I-085562
12/02/2003HugheyFrankTodd11/30/197050M3732 FISH HATCHERY CTPELIONSCSTEALING DOG02/24/2003I-085721
12/02/2003FurmanKristenAlicia08/21/198437WF7286 HWY 162HOLLYWOODSCPROVIDING FALSE INFO TO PSO07/10/2002H115806
12/02/2003SamuelsMichaelLeroy09/01/195368BM237 SUMTER ST SEAIKENSCTAMPERING WITH ELECTRIC METER07/10/2002H115837
12/02/2003DicksCornelia10/05/197249BF1038 CARRIAGE DR APT CAIKENSCFILING FALSE POLICE REPORT08/05/2002I-085221
12/02/2003MurraySuleman05/21/196655BMPO BOX 325 SANDHILL DRWARRENVILLESCDRIVING UNDER SUSPENSION05/27/1997F493305
12/02/2003KeithVincentta04/10/198536BF123 STALEY DRIVEWAGENERSCFORGERY12/09/2002I-085462
12/02/2003WilliamsAntilleLamar05/13/197051BM419 COLLUM STBATESBURGSCSIMPLE ASSAULT & BATTERY05/12/2001G-580951
12/02/2003MoyleDonnaW07/13/196061WF206 STANLEY DRNEW ELLENTONSCDRIVING UNDER SUSPENSION 3RD OFFENSE03/20/2001I085007
12/02/2003HammondAngela09/19/196853WF205 EVANS STREETMORGANTONNCOBTAIN PRESCRIPTION DRUGS BY FRAUD09/30/2002I-085285
12/02/2003HammondAngela09/19/196853WF205 EVANS STREETMORGANTONNCOBTAIN PRESCRIPTION DRUGS BY FRAUD10/18/2002I-085286
12/02/2003MurraySuleman05/21/196655BMPO BOX 325 SANDHILL DRWARRENVILLESCFALSE INFORMATION TO POLICE OFFICER05/27/1997F493304
12/02/2003OsborneHenryDave Jr07/05/195566WM257 MEETING STREET RDEDGEFIELDSCBREACH OF TRUST09/29/1997F493719
12/02/2003DonaldSeanAndrew04/09/198239BM3616 PAMPLONA DRHEPHZIBAHGAOBTAIN MONEY BY FALSE PRETENSE11/17/2002I-085466
12/02/2003JohnsonVictoria01/01/1753268WF422 PALM DRAIKENSCGRAND LARCENY11/21/1997F493895
Warrant IssuedLast NameFirst NameMiddle NameDOBAgeEthnicitySexAddressCityStateViolationViolation DateWarrant Number

Disclaimer: The City of Aiken and the Aiken Department of Public Safety provide this list as a public service. The information contained in the list is subject to frequent revision and as a result errors may occur. The City of Aiken and the Aiken Department of Public Safety do not warrant, expressly or otherwise, the information contained in the list and will not be responsible for any damages, direct or otherwise, as a result of the users reliance upon the information contained anywhere in the web site. All users are cautioned to verify the information independently of this web site. Information provided should not be relied upon for any type of legal action.